Home > Products > Valid Products > MTR

000
SAGM31 PGUM 060454
MTRGUM
METAR PGUM 060454Z 18011G16KT 10SM BKN024 BKN035 31/26 A2964 RMK AO2
RAB17E26 SLP027 P0001 T03060256




000
SAGM31 PGUM 060454
MTRGUM
METAR PGUM 060454Z 18011G16KT 10SM BKN024 BKN035 31/26 A2964 RMK AO2
RAB17E26 SLP027 P0001 T03060256





000
SAGM31 PGUM 060355
MTRGUM
METAR PGUM 060354Z 18011G19KT 10SM FEW022 SCT028 SCT034 30/26 A2966
RMK AO2 SLP035 T03000256




000
SAGM31 PGUM 060355
MTRGUM
METAR PGUM 060354Z 18011G19KT 10SM FEW022 SCT028 SCT034 30/26 A2966
RMK AO2 SLP035 T03000256





000
SAGM31 PGUM 060355
MTRGUM
METAR PGUM 060354Z 18011G19KT 10SM FEW022 SCT028 SCT034 30/26 A2966
RMK AO2 SLP035 T03000256




000
SAGM31 PGUM 060355
MTRGUM
METAR PGUM 060354Z 18011G19KT 10SM FEW022 SCT028 SCT034 30/26 A2966
RMK AO2 SLP035 T03000256





000
SAGM31 PGUM 060352
MTRGUM
SPECI PGUM 060351Z 19011G19KT 10SM FEW022 SCT028 BKN046 30/26 A2966
RMK AO2




000
SAGM31 PGUM 060344
MTRGUM
SPECI PGUM 060343Z 20012G21KT 10SM SCT022 BKN028 BKN035 29/26 A2967
RMK AO2




000
SAGM31 PGUM 060344
MTRGUM
SPECI PGUM 060343Z 20012G21KT 10SM SCT022 BKN028 BKN035 29/26 A2967
RMK AO2





000
SAGM31 PGUM 060336
MTRGUM
SPECI PGUM 060335Z 18012G19KT 10SM FEW022 SCT026 BKN035 29/26 A2967
RMK AO2




000
SAGM31 PGUM 060336
MTRGUM
SPECI PGUM 060335Z 18012G19KT 10SM FEW022 SCT026 BKN035 29/26 A2967
RMK AO2





000
SAGM31 PGUM 060255
MTRGUM
METAR PGUM 060254Z 18013G22KT 10SM SCT018 BKN023 OVC044 29/26 A2967
RMK AO2 PK WND 16027/0224 RAB16E25 SLP038 P0000 60001 T02940256
51004





000
SAGM31 PGUM 060215
MTRGUM
SPECI PGUM 060214Z 17009G16KT 9SM SCT016 BKN021 28/26 A2967 RMK AO2




000
SAGM31 PGUM 060215
MTRGUM
SPECI PGUM 060214Z 17009G16KT 9SM SCT016 BKN021 28/26 A2967 RMK AO2





000
SAGM31 PGUM 060215
MTRGUM
SPECI PGUM 060214Z 17009G16KT 9SM SCT016 BKN021 28/26 A2967 RMK AO2





000
SAGM31 PGUM 060215
MTRGUM
SPECI PGUM 060214Z 17009G16KT 9SM SCT016 BKN021 28/26 A2967 RMK AO2




000
SAGM31 PGUM 060155
MTRGUM
METAR PGUM 060154Z 18015G23KT 10SM FEW017 SCT023 BKN075 29/26 A2967
RMK AO2 SLP038 T02890261




000
SAGM31 PGUM 060155
MTRGUM
METAR PGUM 060154Z 18015G23KT 10SM FEW017 SCT023 BKN075 29/26 A2967
RMK AO2 SLP038 T02890261





000
SAGM31 PGUM 060148
MTRGUM
SPECI PGUM 060147Z 16010G18KT 10SM SCT017 SCT025 BKN050 28/26 A2967
RMK AO2




000
SAGM31 PGUM 060148
MTRGUM
SPECI PGUM 060147Z 16010G18KT 10SM SCT017 SCT025 BKN050 28/26 A2967
RMK AO2





000
SAGM31 PGUM 060148
MTRGUM
SPECI PGUM 060147Z 16010G18KT 10SM SCT017 SCT025 BKN050 28/26 A2967
RMK AO2




000
SAGM31 PGUM 060126
MTRGUM
SPECI PGUM 060126Z 17010KT 10SM SCT019 BKN027 28/26 A2967 RMK AO2




000
SAGM31 PGUM 060126
MTRGUM
SPECI PGUM 060126Z 17010KT 10SM SCT019 BKN027 28/26 A2967 RMK AO2





000
SAGM31 PGUM 060054
MTRGUM
METAR PGUM 060054Z 17008G16KT 10SM SCT019 SCT032 BKN050 28/26 A2966
RMK AO2 RAB13E43 SLP037 P0001 T02780256





000
SAGM31 PGUM 060054
MTRGUM
METAR PGUM 060054Z 17008G16KT 10SM SCT019 SCT032 BKN050 28/26 A2966
RMK AO2 RAB13E43 SLP037 P0001 T02780256




000
SAGM31 PGUM 052355
MTRGUM
METAR PGUM 052354Z 19012G21KT 10SM SCT019 BKN025 BKN037 28/26 A2965
RMK AO2 SLP034 60021 T02830256 10289 20250 51011




000
SAGM31 PGUM 052355
MTRGUM
METAR PGUM 052354Z 19012G21KT 10SM SCT019 BKN025 BKN037 28/26 A2965
RMK AO2 SLP034 60021 T02830256 10289 20250 51011





000
SAGM31 PGUM 052326
MTRGUM
SPECI PGUM 052325Z 18010G18KT 10SM SCT021 BKN027 BKN037 28/26 A2965
RMK AO2




000
SAGM31 PGUM 052326
MTRGUM
SPECI PGUM 052325Z 18010G18KT 10SM SCT021 BKN027 BKN037 28/26 A2965
RMK AO2





000
SAGM31 PGUM 052255
MTRGUM
METAR PGUM 052254Z 18011G16KT 10SM FEW021 BKN035 OVC046 28/26 A2964
RMK AO2 RAE14 SLP029 P0000 T02830256





000
SAGM31 PGUM 052255
MTRGUM
METAR PGUM 052254Z 18011G16KT 10SM FEW021 BKN035 OVC046 28/26 A2964
RMK AO2 RAE14 SLP029 P0000 T02830256




000
SAGM31 PGUM 052155
MTRGUM
METAR PGUM 052154Z 24011G16KT 10SM RA FEW013 BKN018 OVC050 27/26
A2964 RMK AO2 SLP031 P0002 T02670256




000
SAGM31 PGUM 052155
MTRGUM
METAR PGUM 052154Z 24011G16KT 10SM RA FEW013 BKN018 OVC050 27/26
A2964 RMK AO2 SLP031 P0002 T02670256





000
SAGM31 PGUM 052155
MTRGUM
METAR PGUM 052154Z 24011G16KT 10SM RA FEW013 BKN018 OVC050 27/26
A2964 RMK AO2 SLP031 P0002 T02670256




000
SAGM31 PGUM 052148
MTRGUM
SPECI PGUM 052147Z 20009KT 10SM RA SCT016 BKN023 OVC050 27/26 A2964
RMK AO2 P0002




000
SAGM31 PGUM 052148
MTRGUM
SPECI PGUM 052147Z 20009KT 10SM RA SCT016 BKN023 OVC050 27/26 A2964
RMK AO2 P0002





000
SAGM31 PGUM 052112
MTRGUM
SPECI PGUM 052112Z 17010G16KT 7SM RA FEW019 BKN036 OVC050 27/26
A2962 RMK AO2 P0001




000
SAGM31 PGUM 052112
MTRGUM
SPECI PGUM 052112Z 17010G16KT 7SM RA FEW019 BKN036 OVC050 27/26
A2962 RMK AO2 P0001





000
SAGM31 PGUM 052054
MTRGUM
METAR PGUM 052054Z 17006KT 8SM RA BKN021 BKN027 OVC033 27/26 A2962
RMK AO2 SLP023 P0000 60019 T02670256 51020





000
SAGM31 PGUM 052054
MTRGUM
METAR PGUM 052054Z 17006KT 8SM RA BKN021 BKN027 OVC033 27/26 A2962
RMK AO2 SLP023 P0000 60019 T02670256 51020




000
SAGM31 PGUM 052047
MTRGUM
SPECI PGUM 052047Z 19006KT 10SM RA SCT019 BKN025 BKN033 26/25 A2962
RMK AO2 P0000




000
SAGM31 PGUM 051954
MTRGUM
METAR PGUM 051954Z 18006KT 10SM RA FEW021 BKN110 26/24 A2960 RMK AO2
SLP015 P0004 T02560244




000
SAGM31 PGUM 051954
MTRGUM
METAR PGUM 051954Z 18006KT 10SM RA FEW021 BKN110 26/24 A2960 RMK AO2
SLP015 P0004 T02560244





000
SAGM31 PGUM 051946
MTRGUM
SPECI PGUM 051945Z 18005KT 10SM RA FEW015 SCT020 SCT120 26/24 A2960
RMK AO2 P0004




000
SAGM31 PGUM 051946
MTRGUM
SPECI PGUM 051945Z 18005KT 10SM RA FEW015 SCT020 SCT120 26/24 A2960
RMK AO2 P0004





000
SAGM31 PGUM 051931
MTRGUM
SPECI PGUM 051931Z 18007KT 10SM RA SCT009 SCT014 BKN020 26/24 A2959
RMK AO2 P0004




000
SAGM31 PGUM 051931
MTRGUM
SPECI PGUM 051931Z 18007KT 10SM RA SCT009 SCT014 BKN020 26/24 A2959
RMK AO2 P0004





000
SAGM31 PGUM 051902
MTRGUM
SPECI PGUM 051901Z 24007KT 10SM RA BKN011 BKN020 OVC036 25/24 A2959
RMK AO2 P0000




000
SAGM31 PGUM 051902
MTRGUM
SPECI PGUM 051901Z 24007KT 10SM RA BKN011 BKN020 OVC036 25/24 A2959
RMK AO2 P0000





000
SAGM31 PGUM 051902
MTRGUM
SPECI PGUM 051901Z 24007KT 10SM RA BKN011 BKN020 OVC036 25/24 A2959
RMK AO2 P0000




000
SAGM31 PGUM 051855
MTRGUM
METAR PGUM 051854Z 25010G18KT 2SM RA BR BKN011 BKN018 OVC036 25/24
A2959 RMK AO2 SLP013 P0015 T02500244





000
SAGM31 PGUM 051855
MTRGUM
METAR PGUM 051854Z 25010G18KT 2SM RA BR BKN011 BKN018 OVC036 25/24
A2959 RMK AO2 SLP013 P0015 T02500244




000
SAGM31 PGUM 051838
MTRGUM
SPECI PGUM 051837Z 25008KT 2SM RA BR SCT015 BKN022 OVC038 25/24
A2958 RMK AO2 P0014




000
SAGM31 PGUM 051838
MTRGUM
SPECI PGUM 051837Z 25008KT 2SM RA BR SCT015 BKN022 OVC038 25/24
A2958 RMK AO2 P0014




000
SAGM31 PGUM 051838
MTRGUM
SPECI PGUM 051837Z 25008KT 2SM RA BR SCT015 BKN022 OVC038 25/24
A2958 RMK AO2 P0014





000
SAGM31 PGUM 051828
MTRGUM
SPECI PGUM 051827Z 24007KT 2SM RA BR FEW013 BKN030 OVC038 25/24
A2958 RMK AO2 P0014




000
SAGM31 PGUM 051828
MTRGUM
SPECI PGUM 051827Z 24007KT 2SM RA BR FEW013 BKN030 OVC038 25/24
A2958 RMK AO2 P0014





000
SAGM31 PGUM 051814
MTRGUM
SPECI PGUM 051813Z 24012G20KT 2SM RA BR FEW012 BKN019 OVC041 26/25
A2958 RMK AO2 P0010




000
SAGM31 PGUM 051814
MTRGUM
SPECI PGUM 051813Z 24012G20KT 2SM RA BR FEW012 BKN019 OVC041 26/25
A2958 RMK AO2 P0010





000
SAGM31 PGUM 051755
MTRGUM
METAR PGUM 051754Z 24007G18KT 3SM RA BR BKN018 BKN024 OVC031 26/25
A2956 RMK AO2 SLP004 P0057 60104 T02560250 10267 20250 53013




000
SAGM31 PGUM 051755
MTRGUM
METAR PGUM 051754Z 24007G18KT 3SM RA BR BKN018 BKN024 OVC031 26/25
A2956 RMK AO2 SLP004 P0057 60104 T02560250 10267 20250 53013




000
SAGM31 PGUM 051755
MTRGUM
METAR PGUM 051754Z 24007G18KT 3SM RA BR BKN018 BKN024 OVC031 26/25
A2956 RMK AO2 SLP004 P0057 60104 T02560250 10267 20250 53013





000
SAGM31 PGUM 051755
MTRGUM
METAR PGUM 051754Z 24007G18KT 3SM RA BR BKN018 BKN024 OVC031 26/25
A2956 RMK AO2 SLP004 P0057 60104 T02560250 10267 20250 53013





000
SAGM31 PGUM 051655
MTRGUM
METAR PGUM 051654Z 21008G19KT 2SM RA BR FEW016 BKN023 OVC038 26/25
A2955 RMK AO2 RAB09 SLP999 P0018 T02560250




000
SAGM31 PGUM 051655
MTRGUM
METAR PGUM 051654Z 21008G19KT 2SM RA BR FEW016 BKN023 OVC038 26/25
A2955 RMK AO2 RAB09 SLP999 P0018 T02560250





000
SAGM31 PGUM 051655
MTRGUM
METAR PGUM 051654Z 21008G19KT 2SM RA BR FEW016 BKN023 OVC038 26/25
A2955 RMK AO2 RAB09 SLP999 P0018 T02560250





000
SAGM31 PGUM 051655
MTRGUM
METAR PGUM 051654Z 21008G19KT 2SM RA BR FEW016 BKN023 OVC038 26/25
A2955 RMK AO2 RAB09 SLP999 P0018 T02560250




000
SAGM31 PGUM 051647
MTRGUM
SPECI PGUM 051646Z 22014G19KT 180V240 2SM RA BR SCT016 BKN023 OVC039
26/25 A2954 RMK AO2 RAB09 P0005





000
SAGM31 PGUM 051647
MTRGUM
SPECI PGUM 051646Z 22014G19KT 180V240 2SM RA BR SCT016 BKN023 OVC039
26/25 A2954 RMK AO2 RAB09 P0005




000
SAGM31 PGUM 051612
MTRGUM
SPECI PGUM 051611Z 19006KT 6SM RA BR SCT019 BKN026 BKN033 26/25
A2953 RMK AO2 RAB09 P0000




000
SAGM31 PGUM 051612
MTRGUM
SPECI PGUM 051611Z 19006KT 6SM RA BR SCT019 BKN026 BKN033 26/25
A2953 RMK AO2 RAB09 P0000





000
SAGM31 PGUM 051557
MTRGUM
SPECI PGUM 051557Z 22008G14KT 190V260 6SM BR FEW015 SCT021 BKN120
26/25 A2953 RMK AO2




000
SAGM31 PGUM 051557
MTRGUM
SPECI PGUM 051557Z 22008G14KT 190V260 6SM BR FEW015 SCT021 BKN120
26/25 A2953 RMK AO2





000
SAGM31 PGUM 051554
MTRGUM
METAR PGUM 051554Z 22008KT 2SM BR FEW015 SCT021 BKN029 26/25 A2953
RMK AO2 RAE44 SLP991 P0007 T02610250




000
SAGM31 PGUM 051554
MTRGUM
METAR PGUM 051554Z 22008KT 2SM BR FEW015 SCT021 BKN029 26/25 A2953
RMK AO2 RAE44 SLP991 P0007 T02610250





000
SAGM31 PGUM 051521
MTRGUM
SPECI PGUM 051521Z 25011KT 2SM -RA BR FEW013 BKN023 OVC033 26/25
A2953 RMK AO2 P0006




000
SAGM31 PGUM 051521
MTRGUM
SPECI PGUM 051521Z 25011KT 2SM -RA BR FEW013 BKN023 OVC033 26/25
A2953 RMK AO2 P0006





000
SAGM31 PGUM 051513
MTRGUM
SPECI PGUM 051513Z 23008G15KT 8SM -RA FEW015 BKN023 OVC038 26/25
A2953 RMK AO2 P0000





000
SAGM31 PGUM 051513
MTRGUM
SPECI PGUM 051513Z 23008G15KT 8SM -RA FEW015 BKN023 OVC038 26/25
A2953 RMK AO2 P0000




000
SAGM31 PGUM 051455
MTRGUM
METAR PGUM 051454Z 23012G19KT 10SM -RA FEW028 SCT049 BKN075 26/25
A2952 RMK AO2 SLP990 P0011 60022 T02610250 58003




000
SAGM31 PGUM 051455
MTRGUM
METAR PGUM 051454Z 23012G19KT 10SM -RA FEW028 SCT049 BKN075 26/25
A2952 RMK AO2 SLP990 P0011 60022 T02610250 58003





000
SAGM31 PGUM 051420
MTRGUM
SPECI PGUM 051420Z 23011KT 8SM -RA SCT028 SCT055 BKN070 26/25 A2953
RMK AO2 P0006 $





000
SAGM31 PGUM 051420
MTRGUM
SPECI PGUM 051420Z 23011KT 8SM -RA SCT028 SCT055 BKN070 26/25 A2953
RMK AO2 P0006 $




000
SAGM31 PGUM 051406
MTRGUM
SPECI PGUM 051406Z 23009G21KT 5SM -RA BR FEW016 BKN029 OVC060 26/24
A2954 RMK AO2 P0005





000
SAGM31 PGUM 051406
MTRGUM
SPECI PGUM 051406Z 23009G21KT 5SM -RA BR FEW016 BKN029 OVC060 26/24
A2954 RMK AO2 P0005





000
SAGM31 PGUM 051355
MTRGUM
METAR PGUM 051354Z 22015G21KT 2SM +RA BR FEW013 BKN025 OVC046 26/25
A2954 RMK AO2 RAB01 SLP997 P0011 T02560250 402670233




000
SAGM31 PGUM 051355
MTRGUM
METAR PGUM 051354Z 22015G21KT 2SM +RA BR FEW013 BKN025 OVC046 26/25
A2954 RMK AO2 RAB01 SLP997 P0011 T02560250 402670233





000
SAGM31 PGUM 051355
MTRGUM
METAR PGUM 051354Z 22015G21KT 2SM +RA BR FEW013 BKN025 OVC046 26/25
A2954 RMK AO2 RAB01 SLP997 P0011 T02560250 402670233





000
SAGM31 PGUM 051355
MTRGUM
METAR PGUM 051354Z 22015G21KT 2SM +RA BR FEW013 BKN025 OVC046 26/25
A2954 RMK AO2 RAB01 SLP997 P0011 T02560250 402670233




000
SAGM31 PGUM 051350
MTRGUM
SPECI PGUM 051350Z 22013G20KT 2 1/2SM +RA BR FEW015 BKN023 OVC046
26/25 A2954 RMK AO2 RAB01 P0003 402670233





000
SAGM31 PGUM 051350
MTRGUM
SPECI PGUM 051350Z 22013G20KT 2 1/2SM +RA BR FEW015 BKN023 OVC046
26/25 A2954 RMK AO2 RAB01 P0003 402670233




000
SAGM31 PGUM 051339
MTRGUM
SPECI PGUM 051338Z 23013G19KT 10SM FEW020 BKN044 OVC065 27/25 A2953
RMK AO2 RAB01E31 P0001





000
SAGM31 PGUM 051339
MTRGUM
SPECI PGUM 051338Z 23013G19KT 10SM FEW020 BKN044 OVC065 27/25 A2953
RMK AO2 RAB01E31 P0001




000
SAGM31 PGUM 051339
MTRGUM
SPECI PGUM 051338Z 23013G19KT 10SM FEW020 BKN044 OVC065 27/25 A2953
RMK AO2 RAB01E31 P0001




000
SAGM31 PGUM 051339
MTRGUM
SPECI PGUM 051338Z 23013G19KT 10SM FEW020 BKN044 OVC065 27/25 A2953
RMK AO2 RAB01E31 P0001





000
SAGM31 PGUM 051329
MTRGUM
SPECI PGUM 051328Z 21014G21KT 10SM -RA BKN019 BKN032 OVC044 27/25
A2953 RMK AO2 RAB01 P0001




000
SAGM31 PGUM 051329
MTRGUM
SPECI PGUM 051328Z 21014G21KT 10SM -RA BKN019 BKN032 OVC044 27/25
A2953 RMK AO2 RAB01 P0001





000
SAGM31 PGUM 051329
MTRGUM
SPECI PGUM 051328Z 21014G21KT 10SM -RA BKN019 BKN032 OVC044 27/25
A2953 RMK AO2 RAB01 P0001





000
SAGM31 PGUM 051255
MTRGUM
METAR PGUM 051254Z 23013G20KT 10SM FEW016 BKN036 27/24 A2953 RMK AO2
PK WND 24026/1236 RAE05B31E44 SLP993 P0000 T02670244




000
SAGM31 PGUM 051255
MTRGUM
METAR PGUM 051254Z 23013G20KT 10SM FEW016 BKN036 27/24 A2953 RMK AO2
PK WND 24026/1236 RAE05B31E44 SLP993 P0000 T02670244





000
SAGM31 PGUM 051251
MTRGUM
SPECI PGUM 051250Z 24012G20KT 10SM SCT017 BKN031 BKN039 27/24 A2953
RMK AO2 PK WND 24026/1236 RAE05B31E44 P0000





000
SAGM31 PGUM 051251
MTRGUM
SPECI PGUM 051250Z 24012G20KT 10SM SCT017 BKN031 BKN039 27/24 A2953
RMK AO2 PK WND 24026/1236 RAE05B31E44 P0000




000
SAGM31 PGUM 051157
MTRGUM
METAR PGUM 051154Z COR 25015G22KT 9SM -RA BKN017 BKN022 27/24 A2950
RMK AO2 PK WND 26031/1125 RAB53 SLP982 P0000 60017 71265 T02670244
10267 20244 51024





000
SAGM31 PGUM 051157
MTRGUM
METAR PGUM 051154Z COR 25015G22KT 9SM -RA BKN017 BKN022 27/24 A2950
RMK AO2 PK WND 26031/1125 RAB53 SLP982 P0000 60017 71265 T02670244
10267 20244 51024




000
SAGM31 PGUM 051157
MTRGUM
METAR PGUM 051154Z COR 25015G22KT 9SM -RA BKN017 BKN022 27/24 A2950
RMK AO2 PK WND 26031/1125 RAB53 SLP982 P0000 60017 71265 T02670244
10267 20244 51024




000
SAGM31 PGUM 051157
MTRGUM
METAR PGUM 051154Z COR 25015G22KT 9SM -RA BKN017 BKN022 27/24 A2950
RMK AO2 PK WND 26031/1125 RAB53 SLP982 P0000 60017 71265 T02670244
10267 20244 51024





000
SAGM31 PGUM 051155
MTRGUM
METAR PGUM 051154Z 25015G22KT 9SM -RA BKN017 BKN022 27/24 A2950 RMK
AO2 PK WND 26031/1125 RAB53 SLP982 P0000 60012 71069 T02670244 10267
20244 51024





000
SAGM31 PGUM 051150
MTRGUM
SPECI PGUM 051149Z 25014G21KT 10SM SCT017 BKN024 27/24 A2950 RMK AO2
PK WND 26031/1125





000
SAGM31 PGUM 051150
MTRGUM
SPECI PGUM 051149Z 25014G21KT 10SM SCT017 BKN024 27/24 A2950 RMK AO2
PK WND 26031/1125




000
SAGM31 PGUM 051139
MTRGUM
SPECI PGUM 051138Z 26016G25KT 10SM SCT020 27/24 A2948 RMK AO2 PK WND
26031/1125




000
SAGM31 PGUM 051139
MTRGUM
SPECI PGUM 051138Z 26016G25KT 10SM SCT020 27/24 A2948 RMK AO2 PK WND
26031/1125





000
SAGM31 PGUM 051139
MTRGUM
SPECI PGUM 051138Z 26016G25KT 10SM SCT020 27/24 A2948 RMK AO2 PK WND
26031/1125





000
SAGM31 PGUM 051139
MTRGUM
SPECI PGUM 051138Z 26016G25KT 10SM SCT020 27/24 A2948 RMK AO2 PK WND
26031/1125




000
SAGM31 PGUM 051055
MTRGUM
METAR PGUM 051054Z 26023G34KT 10SM BKN017 BKN022 BKN028 27/25 A2946
RMK AO2 PK WND 26034/1047 RAE01 SLP970 P0000 T02670250




000
SAGM31 PGUM 051055
MTRGUM
METAR PGUM 051054Z 26023G34KT 10SM BKN017 BKN022 BKN028 27/25 A2946
RMK AO2 PK WND 26034/1047 RAE01 SLP970 P0000 T02670250





000
SAGM31 PGUM 051055
MTRGUM
METAR PGUM 051054Z 26023G34KT 10SM BKN017 BKN022 BKN028 27/25 A2946
RMK AO2 PK WND 26034/1047 RAE01 SLP970 P0000 T02670250





000
SAGM31 PGUM 051038
MTRGUM
SPECI PGUM 051037Z 26022G30KT 10SM SCT014 BKN022 26/25 A2945 RMK AO2
PK WND 27031/1002 RAE01 P0000




000
SAGM31 PGUM 051038
MTRGUM
SPECI PGUM 051037Z 26022G30KT 10SM SCT014 BKN022 26/25 A2945 RMK AO2
PK WND 27031/1002 RAE01 P0000





000
SAGM31 PGUM 051026
MTRGUM
SPECI PGUM 051026Z 26023G29KT 10SM SCT014 26/25 A2944 RMK AO2 PK WND
27031/1002 RAE01 P0000




000
SAGM31 PGUM 051024
MTRGUM
SPECI PGUM 051024Z 26024G29KT 10SM BKN013 26/25 A2944 RMK AO2 PK WND
27031/1002 RAE01 P0000





000
SAGM31 PGUM 051024
MTRGUM
SPECI PGUM 051024Z 26024G29KT 10SM BKN013 26/25 A2944 RMK AO2 PK WND
27031/1002 RAE01 P0000




000
SAGM31 PGUM 050954
MTRGUM
METAR PGUM 050954Z 27024G31KT 10SM -RA SCT009 OVC050 25/24 A2943 RMK
AO2 PK WND 27037/0920 SLP958 P0002 T02500239




000
SAGM31 PGUM 050954
MTRGUM
METAR PGUM 050954Z 27024G31KT 10SM -RA SCT009 OVC050 25/24 A2943 RMK
AO2 PK WND 27037/0920 SLP958 P0002 T02500239





000
SAGM31 PGUM 050937
MTRGUM
SPECI PGUM 050937Z 27024G31KT 7SM -RA FEW009 BKN049 OVC070 25/24
A2943 RMK AO2 PK WND 27037/0920 P0001




000
SAGM31 PGUM 050937
MTRGUM
SPECI PGUM 050937Z 27024G31KT 7SM -RA FEW009 BKN049 OVC070 25/24
A2943 RMK AO2 PK WND 27037/0920 P0001





000
SAGM31 PGUM 050937
MTRGUM
SPECI PGUM 050937Z 27024G31KT 7SM -RA FEW009 BKN049 OVC070 25/24
A2943 RMK AO2 PK WND 27037/0920 P0001




000
SAGM31 PGUM 050937
MTRGUM
SPECI PGUM 050937Z 27024G31KT 7SM -RA FEW009 BKN049 OVC070 25/24
A2943 RMK AO2 PK WND 27037/0920 P0001





000
SAGM31 PGUM 050922
MTRGUM
SPECI PGUM 050921Z 27028G37KT 9SM -RA FEW007 BKN011 BKN037 25/24
A2944 RMK AO2 PK WND 27037/0920 P0000





000
SAGM31 PGUM 050922
MTRGUM
SPECI PGUM 050921Z 27028G37KT 9SM -RA FEW007 BKN011 BKN037 25/24
A2944 RMK AO2 PK WND 27037/0920 P0000




000
SAGM31 PGUM 050854
MTRGUM
METAR PGUM 050854Z 27017G27KT 10SM -RA BKN007 BKN039 26/25 A2945 RMK
AO2 PK WND 25030/0801 SLP964 P0009 60010 T02560250 50012





000
SAGM31 PGUM 050854
MTRGUM
METAR PGUM 050854Z 27017G27KT 10SM -RA BKN007 BKN039 26/25 A2945 RMK
AO2 PK WND 25030/0801 SLP964 P0009 60010 T02560250 50012




000
SAGM31 PGUM 050854
MTRGUM
METAR PGUM 050854Z 27017G27KT 10SM -RA BKN007 BKN039 26/25 A2945 RMK
AO2 PK WND 25030/0801 SLP964 P0009 60010 T02560250 50012




000
SAGM31 PGUM 050854
MTRGUM
METAR PGUM 050854Z 27017G27KT 10SM -RA BKN007 BKN039 26/25 A2945 RMK
AO2 PK WND 25030/0801 SLP964 P0009 60010 T02560250 50012





000
SAGM31 PGUM 050846
MTRGUM
SPECI PGUM 050846Z 27022G27KT 10SM -RA BKN007 BKN016 OVC110 26/25
A2944 RMK AO2 PK WND 25030/0801 P0008





000
SAGM31 PGUM 050846
MTRGUM
SPECI PGUM 050846Z 27022G27KT 10SM -RA BKN007 BKN016 OVC110 26/25
A2944 RMK AO2 PK WND 25030/0801 P0008




000
SAGM31 PGUM 050834
MTRGUM
SPECI PGUM 050834Z 27020G24KT 10SM -RA SCT007 SCT041 BKN100 25/24
A2944 RMK AO2 PK WND 25030/0801 P0008





000
SAGM31 PGUM 050834
MTRGUM
SPECI PGUM 050834Z 27020G24KT 10SM -RA SCT007 SCT041 BKN100 25/24
A2944 RMK AO2 PK WND 25030/0801 P0008




000
SAGM31 PGUM 050823
MTRGUM
SPECI PGUM 050822Z 26020G26KT 4SM -RA BR FEW010 BKN039 OVC100 25/24
A2945 RMK AO2 PK WND 25030/0801 P0008





000
SAGM31 PGUM 050823
MTRGUM
SPECI PGUM 050822Z 26020G26KT 4SM -RA BR FEW010 BKN039 OVC100 25/24
A2945 RMK AO2 PK WND 25030/0801 P0008




000
SAGM31 PGUM 050816
MTRGUM
SPECI PGUM 050815Z 26019G28KT 2 1/2SM RA BR SCT012 BKN039 OVC100
24/24 A2945 RMK AO2 PK WND 25030/0801 VIS 1 1/2V5 P0007





000
SAGM31 PGUM 050816
MTRGUM
SPECI PGUM 050815Z 26019G28KT 2 1/2SM RA BR SCT012 BKN039 OVC100
24/24 A2945 RMK AO2 PK WND 25030/0801 VIS 1 1/2V5 P0007




000
SAGM31 PGUM 050803
MTRGUM
SPECI PGUM 050802Z 25023G30KT 2 1/2SM RA BR SCT009 BKN018 BKN043
26/24 A2946 RMK AO2 PK WND 25030/0801 VIS 1V5 P0002





000
SAGM31 PGUM 050803
MTRGUM
SPECI PGUM 050802Z 25023G30KT 2 1/2SM RA BR SCT009 BKN018 BKN043
26/24 A2946 RMK AO2 PK WND 25030/0801 VIS 1V5 P0002




000
SAGM31 PGUM 050803
MTRGUM
SPECI PGUM 050802Z 25023G30KT 2 1/2SM RA BR SCT009 BKN018 BKN043
26/24 A2946 RMK AO2 PK WND 25030/0801 VIS 1V5 P0002





000
SAGM31 PGUM 050759
MTRGUM
SPECI PGUM 050758Z 26019G24KT 3SM RA BR BKN014 BKN040 BKN110 26/24
A2946 RMK AO2 P0000




000
SAGM31 PGUM 050759
MTRGUM
SPECI PGUM 050758Z 26019G24KT 3SM RA BR BKN014 BKN040 BKN110 26/24
A2946 RMK AO2 P0000





000
SAGM31 PGUM 050755
MTRGUM
METAR PGUM 050754Z 25018G26KT 10SM -RA SCT016 BKN042 BKN060 26/24
A2946 RMK AO2 PK WND 25026/0745 RAB10E19B41 SLP968 P0000 T02560244




000
SAGM31 PGUM 050755
MTRGUM
METAR PGUM 050754Z 25018G26KT 10SM -RA SCT016 BKN042 BKN060 26/24
A2946 RMK AO2 PK WND 25026/0745 RAB10E19B41 SLP968 P0000 T02560244





000
SAGM31 PGUM 050736
MTRGUM
SPECI PGUM 050735Z 25015G24KT 10SM FEW011 SCT018 BKN065 26/24 A2945
RMK AO2 RAB10E19 P0000





000
SAGM31 PGUM 050715
MTRGUM
SPECI PGUM 050715Z 25014G21KT 9SM -RA BKN010 BKN016 OVC029 26/24
A2945 RMK AO2 RAB10 P0000





000
SAGM31 PGUM 050715
MTRGUM
SPECI PGUM 050715Z 25014G21KT 9SM -RA BKN010 BKN016 OVC029 26/24
A2945 RMK AO2 RAB10 P0000




000
SAGM31 PGUM 050654
MTRGUM
METAR PGUM 050654Z 25018G24KT 10SM SCT012 BKN024 OVC060 26/24 A2943
RMK AO2 PK WND 26033/0630 RAB04E17 SLP958 P0001 T02560244




000
SAGM31 PGUM 050654
MTRGUM
METAR PGUM 050654Z 25018G24KT 10SM SCT012 BKN024 OVC060 26/24 A2943
RMK AO2 PK WND 26033/0630 RAB04E17 SLP958 P0001 T02560244





000
SAGM31 PGUM 050632
MTRGUM
SPECI PGUM 050632Z 26025G33KT 9SM SCT014 BKN022 OVC060 26/25 A2942
RMK AO2 PK WND 26033/0630 RAB04E17 P0001




000
SAGM31 PGUM 050632
MTRGUM
SPECI PGUM 050632Z 26025G33KT 9SM SCT014 BKN022 OVC060 26/25 A2942
RMK AO2 PK WND 26033/0630 RAB04E17 P0001





000
SAGM31 PGUM 050613
MTRGUM
SPECI PGUM 050613Z 27021G27KT 7SM -RA SCT017 BKN047 OVC060 26/25
A2941 RMK AO2 PK WND 27031/0555 RAB04 P0001





000
SAGM31 PGUM 050613
MTRGUM
SPECI PGUM 050613Z 27021G27KT 7SM -RA SCT017 BKN047 OVC060 26/25
A2941 RMK AO2 PK WND 27031/0555 RAB04 P0001




000
SAGM31 PGUM 050613
MTRGUM
SPECI PGUM 050613Z 27021G27KT 7SM -RA SCT017 BKN047 OVC060 26/25
A2941 RMK AO2 PK WND 27031/0555 RAB04 P0001




000
SAGM31 PGUM 050613
MTRGUM
SPECI PGUM 050613Z 27021G27KT 7SM -RA SCT017 BKN047 OVC060 26/25
A2941 RMK AO2 PK WND 27031/0555 RAB04 P0001





000
SAGM31 PGUM 050554
MTRGUM
METAR PGUM 050554Z 27025G33KT 10SM FEW009 BKN018 OVC050 26/25 A2941
RMK AO2 PK WND 27033/0550 RAE51 SLP951 P0022 60372 T02560250 10256
20244 51018





000
SAGM31 PGUM 050554
MTRGUM
METAR PGUM 050554Z 27025G33KT 10SM FEW009 BKN018 OVC050 26/25 A2941
RMK AO2 PK WND 27033/0550 RAE51 SLP951 P0022 60372 T02560250 10256
20244 51018




000
SAGM31 PGUM 050554
MTRGUM
METAR PGUM 050554Z 27025G33KT 10SM FEW009 BKN018 OVC050 26/25 A2941
RMK AO2 PK WND 27033/0550 RAE51 SLP951 P0022 60372 T02560250 10256
20244 51018





000
SAGM31 PGUM 050546
MTRGUM
SPECI PGUM 050546Z 28021G29KT 2 1/2SM -RA BR FEW009 OVC015 25/25
A2941 RMK AO2 PK WND 29033/0506 P0022





000
SAGM31 PGUM 050546
MTRGUM
SPECI PGUM 050546Z 28021G29KT 2 1/2SM -RA BR FEW009 OVC015 25/25
A2941 RMK AO2 PK WND 29033/0506 P0022




000
SAGM31 PGUM 050542
MTRGUM
SPECI PGUM 050541Z 29019G29KT 1 1/4SM RA BR BKN009 OVC015 24/24
A2941 RMK AO2 PK WND 29033/0506 P0021





000
SAGM31 PGUM 050542
MTRGUM
SPECI PGUM 050541Z 29019G29KT 1 1/4SM RA BR BKN009 OVC015 24/24
A2941 RMK AO2 PK WND 29033/0506 P0021




000
SAGM31 PGUM 050532
MTRGUM
SPECI PGUM 050531Z 29024G31KT 1 3/4SM +RA BR OVC010 25/24 A2941 RMK
AO2 PK WND 29033/0506 VIS 1 1/4V5 PRESRR P0013




000
SAGM31 PGUM 050532
MTRGUM
SPECI PGUM 050531Z 29024G31KT 1 3/4SM +RA BR OVC010 25/24 A2941 RMK
AO2 PK WND 29033/0506 VIS 1 1/4V5 PRESRR P0013





000
SAGM31 PGUM 050518
MTRGUM
SPECI PGUM 050517Z 30018G29KT 4SM RA BR SCT010 BKN014 OVC031 25/24
A2939 RMK AO2 PK WND 29033/0506 P0006




000
SAGM31 PGUM 050518
MTRGUM
SPECI PGUM 050517Z 30018G29KT 4SM RA BR SCT010 BKN014 OVC031 25/24
A2939 RMK AO2 PK WND 29033/0506 P0006





000
SAGM31 PGUM 050518
MTRGUM
SPECI PGUM 050517Z 30018G29KT 4SM RA BR SCT010 BKN014 OVC031 25/24
A2939 RMK AO2 PK WND 29033/0506 P0006




000
SAGM31 PGUM 050506
MTRGUM
SPECI PGUM 050506Z 29025G33KT 2 1/2SM RA BR FEW009 BKN014 OVC032
25/25 A2939 RMK AO2 PK WND 29033/0506 P0004





000
SAGM31 PGUM 050506
MTRGUM
SPECI PGUM 050506Z 29025G33KT 2 1/2SM RA BR FEW009 BKN014 OVC032
25/25 A2939 RMK AO2 PK WND 29033/0506 P0004




000
SAGM31 PGUM 050506
MTRGUM
SPECI PGUM 050506Z 29025G33KT 2 1/2SM RA BR FEW009 BKN014 OVC032
25/25 A2939 RMK AO2 PK WND 29033/0506 P0004




000
SAGM31 PGUM 050506
MTRGUM
SPECI PGUM 050506Z 29025G33KT 2 1/2SM RA BR FEW009 BKN014 OVC032
25/25 A2939 RMK AO2 PK WND 29033/0506 P0004





000
SAGM31 PGUM 050454
MTRGUM
METAR PGUM 050454Z 29027G35KT 3SM RA BR FEW008 OVC017 25/24 A2938
RMK AO2 PK WND 30040/0430 SLP942 P0045 T02500244





000
SAGM31 PGUM 050454
MTRGUM
METAR PGUM 050454Z 29027G35KT 3SM RA BR FEW008 OVC017 25/24 A2938
RMK AO2 PK WND 30040/0430 SLP942 P0045 T02500244




000
SAGM31 PGUM 050454
MTRGUM
METAR PGUM 050454Z 29027G35KT 3SM RA BR FEW008 OVC017 25/24 A2938
RMK AO2 PK WND 30040/0430 SLP942 P0045 T02500244





000
SAGM31 PGUM 050449
MTRGUM
SPECI PGUM 050449Z 30021G33KT 3SM RA BR FEW008 OVC017 24/24 A2938
RMK AO2 PK WND 30040/0430 P0044





000
SAGM31 PGUM 050449
MTRGUM
SPECI PGUM 050449Z 30021G33KT 3SM RA BR FEW008 OVC017 24/24 A2938
RMK AO2 PK WND 30040/0430 P0044




000
SAGM31 PGUM 050441
MTRGUM
SPECI PGUM 050441Z 30023G39KT 2 1/2SM RA BR FEW008 OVC013 25/24
A2938 RMK AO2 PK WND 30040/0430 P0041





000
SAGM31 PGUM 050441
MTRGUM
SPECI PGUM 050441Z 30023G39KT 2 1/2SM RA BR FEW008 OVC013 25/24
A2938 RMK AO2 PK WND 30040/0430 P0041




000
SAGM31 PGUM 050439
MTRGUM
SPECI PGUM 050439Z 30024G40KT 3SM RA BR VV005 25/24 A2938 RMK AO2 PK
WND 30040/0430 P0041





000
SAGM31 PGUM 050439
MTRGUM
SPECI PGUM 050439Z 30024G40KT 3SM RA BR VV005 25/24 A2938 RMK AO2 PK
WND 30040/0430 P0041




000
SAGM31 PGUM 050439
MTRGUM
SPECI PGUM 050439Z 30024G40KT 3SM RA BR VV005 25/24 A2938 RMK AO2 PK
WND 30040/0430 P0041





000
SAGM31 PGUM 050436
MTRGUM
SPECI PGUM 050436Z 29025G40KT 1 3/4SM RA BR VV005 25/24 A2937 RMK
AO2 PK WND 30040/0430 P0041




000
SAGM31 PGUM 050436
MTRGUM
SPECI PGUM 050436Z 29025G40KT 1 3/4SM RA BR VV005 25/24 A2937 RMK
AO2 PK WND 30040/0430 P0041





000
SAGM31 PGUM 050412
MTRGUM
SPECI PGUM 050411Z 28025G37KT 1/2SM +RA FG VV005 25/25 A2937 RMK AO2
PK WND 27039/0357 P0017




000
SAGM31 PGUM 050412
MTRGUM
SPECI PGUM 050411Z 28025G37KT 1/2SM +RA FG VV005 25/25 A2937 RMK AO2
PK WND 27039/0357 P0017





000
SAGM31 PGUM 050412
MTRGUM
SPECI PGUM 050411Z 28025G37KT 1/2SM +RA FG VV005 25/25 A2937 RMK AO2
PK WND 27039/0357 P0017




000
SAGM31 PGUM 050412
MTRGUM
SPECI PGUM 050411Z 28025G37KT 1/2SM +RA FG VV005 25/25 A2937 RMK AO2
PK WND 27039/0357 P0017





000
SAGM31 PGUM 050355
MTRGUM
METAR PGUM 050354Z 27029G35KT 3/4SM +RA BR VV006 26/26 A2936 RMK AO2
PK WND 29039/0325 SLP933 P0088 T02560256





000
SAGM31 PGUM 050355
MTRGUM
METAR PGUM 050354Z 27029G35KT 3/4SM +RA BR VV006 26/26 A2936 RMK AO2
PK WND 29039/0325 SLP933 P0088 T02560256




000
SAGM31 PGUM 050355
MTRGUM
METAR PGUM 050354Z 27029G35KT 3/4SM +RA BR VV006 26/26 A2936 RMK AO2
PK WND 29039/0325 SLP933 P0088 T02560256




000
SAGM31 PGUM 050340
MTRGUM
SPECI PGUM 050339Z 28025G35KT 1/2SM +RA FG BKN006 OVC010 25/25 A2935
RMK AO2 PK WND 29039/0325 P0072




000
SAGM31 PGUM 050340
MTRGUM
SPECI PGUM 050339Z 28025G35KT 1/2SM +RA FG BKN006 OVC010 25/25 A2935
RMK AO2 PK WND 29039/0325 P0072




000
SAGM31 PGUM 050340
MTRGUM
SPECI PGUM 050339Z 28025G35KT 1/2SM +RA FG BKN006 OVC010 25/25 A2935
RMK AO2 PK WND 29039/0325 P0072





000
SAGM31 PGUM 050329
MTRGUM
SPECI PGUM 050328Z 28028G39KT 3/4SM +RA BR VV010 24/24 A2936 RMK AO2
PK WND 29039/0325 P0055




000
SAGM31 PGUM 050329
MTRGUM
SPECI PGUM 050328Z 28028G39KT 3/4SM +RA BR VV010 24/24 A2936 RMK AO2
PK WND 29039/0325 P0055





000
SAGM31 PGUM 050324
MTRGUM
SPECI PGUM 050323Z 29027G36KT 1 1/4SM -RA BR OVC008 25/25 A2935 RMK
AO2 PK WND 29036/0321 P0051





000
SAGM31 PGUM 050324
MTRGUM
SPECI PGUM 050323Z 29027G36KT 1 1/4SM -RA BR OVC008 25/25 A2935 RMK
AO2 PK WND 29036/0321 P0051




000
SAGM31 PGUM 050324
MTRGUM
SPECI PGUM 050323Z 29027G36KT 1 1/4SM -RA BR OVC008 25/25 A2935 RMK
AO2 PK WND 29036/0321 P0051




000
SAGM31 PGUM 050324
MTRGUM
SPECI PGUM 050323Z 29027G36KT 1 1/4SM -RA BR OVC008 25/25 A2935 RMK
AO2 PK WND 29036/0321 P0051





000
SAGM31 PGUM 050255
MTRGUM
METAR PGUM 050254Z 28023G30KT 1/4SM +RA FG VV008 26/26 A2936 RMK AO2
PK WND 25035/0209 SLP936 P0031 60115 T02560256 56018





000
SAGM31 PGUM 050255
MTRGUM
METAR PGUM 050254Z 28023G30KT 1/4SM +RA FG VV008 26/26 A2936 RMK AO2
PK WND 25035/0209 SLP936 P0031 60115 T02560256 56018




000
SAGM31 PGUM 050255
MTRGUM
METAR PGUM 050254Z 28023G30KT 1/4SM +RA FG VV008 26/26 A2936 RMK AO2
PK WND 25035/0209 SLP936 P0031 60115 T02560256 56018




000
SAGM31 PGUM 050244
MTRGUM
SPECI PGUM 050243Z 28026G33KT 1/2SM +RA FG BKN005 OVC011 25/25 A2936
RMK AO2 PK WND 25035/0209 P0014





000
SAGM31 PGUM 050244
MTRGUM
SPECI PGUM 050243Z 28026G33KT 1/2SM +RA FG BKN005 OVC011 25/25 A2936
RMK AO2 PK WND 25035/0209 P0014




000
SAGM31 PGUM 050244
MTRGUM
SPECI PGUM 050243Z 28026G33KT 1/2SM +RA FG BKN005 OVC011 25/25 A2936
RMK AO2 PK WND 25035/0209 P0014




000
SAGM31 PGUM 050244
MTRGUM
SPECI PGUM 050243Z 28026G33KT 1/2SM +RA FG BKN005 OVC011 25/25 A2936
RMK AO2 PK WND 25035/0209 P0014





000
SAGM31 PGUM 050238
MTRGUM
SPECI PGUM 050237Z 25023G31KT 1 3/4SM +RA BR SCT008 BKN011 OVC016
26/26 A2935 RMK AO2 PK WND 25035/0209 P0004




000
SAGM31 PGUM 050238
MTRGUM
SPECI PGUM 050237Z 25023G31KT 1 3/4SM +RA BR SCT008 BKN011 OVC016
26/26 A2935 RMK AO2 PK WND 25035/0209 P0004





000
SAGM31 PGUM 050155
MTRGUM
METAR PGUM 050154Z 26023G30KT 4SM -RA BR BKN008 OVC013 26/26 A2937
RMK AO2 PK WND 27033/0103 SLP940 P0015 T02560256




000
SAGM31 PGUM 050155
MTRGUM
METAR PGUM 050154Z 26023G30KT 4SM -RA BR BKN008 OVC013 26/26 A2937
RMK AO2 PK WND 27033/0103 SLP940 P0015 T02560256





000
SAGM31 PGUM 050155
MTRGUM
METAR PGUM 050154Z 26023G30KT 4SM -RA BR BKN008 OVC013 26/26 A2937
RMK AO2 PK WND 27033/0103 SLP940 P0015 T02560256




000
SAGM31 PGUM 050155
MTRGUM
METAR PGUM 050154Z 26023G30KT 4SM -RA BR BKN008 OVC013 26/26 A2937
RMK AO2 PK WND 27033/0103 SLP940 P0015 T02560256





000
SAGM31 PGUM 050131
MTRGUM
SPECI PGUM 050131Z 26018G26KT 3SM -RA BR BKN006 BKN011 OVC020 25/25
A2938 RMK AO2 PK WND 27033/0103 P0011




000
SAGM31 PGUM 050131
MTRGUM
SPECI PGUM 050131Z 26018G26KT 3SM -RA BR BKN006 BKN011 OVC020 25/25
A2938 RMK AO2 PK WND 27033/0103 P0011





000
SAGM31 PGUM 050122
MTRGUM
SPECI PGUM 050122Z 26019G24KT 2SM RA BR FEW004 BKN008 OVC014 25/25
A2939 RMK AO2 PK WND 27033/0103 P0009




000
SAGM31 PGUM 050122
MTRGUM
SPECI PGUM 050122Z 26019G24KT 2SM RA BR FEW004 BKN008 OVC014 25/25
A2939 RMK AO2 PK WND 27033/0103 P0009





000
SAGM31 PGUM 050120
MTRGUM
SPECI PGUM 050120Z 26020G24KT 1 3/4SM RA BR FEW004 SCT008 OVC014
25/25 A2939 RMK AO2 PK WND 27033/0103 P0008





000
SAGM31 PGUM 050120
MTRGUM
SPECI PGUM 050120Z 26020G24KT 1 3/4SM RA BR FEW004 SCT008 OVC014
25/25 A2939 RMK AO2 PK WND 27033/0103 P0008




000
SAGM31 PGUM 050120
MTRGUM
SPECI PGUM 050120Z 26020G24KT 1 3/4SM RA BR FEW004 SCT008 OVC014
25/25 A2939 RMK AO2 PK WND 27033/0103 P0008





000
SAGM31 PGUM 050108
MTRGUM
SPECI PGUM 050107Z 26022G33KT 2 1/2SM RA BR FEW008 OVC012 24/24
A2940 RMK AO2 PK WND 27033/0103 P0003




000
SAGM31 PGUM 050108
MTRGUM
SPECI PGUM 050107Z 26022G33KT 2 1/2SM RA BR FEW008 OVC012 24/24
A2940 RMK AO2 PK WND 27033/0103 P0003





000
SAGM31 PGUM 050054
MTRGUM
METAR PGUM 050054Z 27018G34KT 4SM -RA BR BKN008 OVC014 25/24 A2940
RMK AO2 PK WND 24037/0040 SLP949 P0059 T02500244





000
SAGM31 PGUM 050054
MTRGUM
METAR PGUM 050054Z 27018G34KT 4SM -RA BR BKN008 OVC014 25/24 A2940
RMK AO2 PK WND 24037/0040 SLP949 P0059 T02500244




000
SAGM31 PGUM 050051
MTRGUM
SPECI PGUM 050050Z 27021G34KT 2SM RA BR BKN006 OVC014 25/25 A2940
RMK AO2 PK WND 24037/0040 P0058




000
SAGM31 PGUM 050051
MTRGUM
SPECI PGUM 050050Z 27021G34KT 2SM RA BR BKN006 OVC014 25/25 A2940
RMK AO2 PK WND 24037/0040 P0058





000
SAGM31 PGUM 050051
MTRGUM
SPECI PGUM 050050Z 27021G34KT 2SM RA BR BKN006 OVC014 25/25 A2940
RMK AO2 PK WND 24037/0040 P0058




000
SAGM31 PGUM 050044
MTRGUM
SPECI PGUM 050043Z 25022G37KT 3/4SM +RA BR VV006 25/25 A2940 RMK AO2
PK WND 24037/0040 P0054





000
SAGM31 PGUM 050044
MTRGUM
SPECI PGUM 050043Z 25022G37KT 3/4SM +RA BR VV006 25/25 A2940 RMK AO2
PK WND 24037/0040 P0054




000
SAGM31 PGUM 050032
MTRGUM
SPECI PGUM 050032Z 25019G29KT 1 1/4SM +RA BR BKN005 OVC014 25/25
A2940 RMK AO2 PK WND 26032/0022 P0034





000
SAGM31 PGUM 050032
MTRGUM
SPECI PGUM 050032Z 25019G29KT 1 1/4SM +RA BR BKN005 OVC014 25/25
A2940 RMK AO2 PK WND 26032/0022 P0034




000
SAGM31 PGUM 050028
MTRGUM
SPECI PGUM 050027Z 25021G32KT 2 1/2SM RA BR SCT005 OVC012 25/25
A2940 RMK AO2 PK WND 26032/0022 P0032




000
SAGM31 PGUM 050028
MTRGUM
SPECI PGUM 050027Z 25021G32KT 2 1/2SM RA BR SCT005 OVC012 25/25
A2940 RMK AO2 PK WND 26032/0022 P0032





000
SAGM31 PGUM 050014
MTRGUM
SPECI PGUM 050013Z 26021G30KT 1 1/4SM +RA BR BKN005 OVC014 25/25
A2940 RMK AO2 PK WND 26030/0011 P0025





000
SAGM31 PGUM 050014
MTRGUM
SPECI PGUM 050013Z 26021G30KT 1 1/4SM +RA BR BKN005 OVC014 25/25
A2940 RMK AO2 PK WND 26030/0011 P0025




000
SAGM31 PGUM 050014
MTRGUM
SPECI PGUM 050013Z 26021G30KT 1 1/4SM +RA BR BKN005 OVC014 25/25
A2940 RMK AO2 PK WND 26030/0011 P0025





000
SAGM31 PGUM 050014
MTRGUM
SPECI PGUM 050013Z 26021G30KT 1 1/4SM +RA BR BKN005 OVC014 25/25
A2940 RMK AO2 PK WND 26030/0011 P0025




000
SAGM31 PGUM 050002
MTRGUM
SPECI PGUM 050002Z 24021G30KT 3/4SM +RA BR BKN005 OVC014 25/25 A2940
RMK AO2 PK WND 25030/0001 P0013





000
SAGM31 PGUM 050002
MTRGUM
SPECI PGUM 050002Z 24021G30KT 3/4SM +RA BR BKN005 OVC014 25/25 A2940
RMK AO2 PK WND 25030/0001 P0013




000
SAGM31 PGUM 050002
MTRGUM
SPECI PGUM 050002Z 24021G30KT 3/4SM +RA BR BKN005 OVC014 25/25 A2940
RMK AO2 PK WND 25030/0001 P0013





000
SAGM31 PGUM 050002
MTRGUM
SPECI PGUM 050002Z 24021G30KT 3/4SM +RA BR BKN005 OVC014 25/25 A2940
RMK AO2 PK WND 25030/0001 P0013




000
SAGM31 PGUM 042354
MTRGUM
METAR PGUM 042354Z 25021G31KT 3/4SM +RA BR SCT005 OVC012 25/25 A2942
RMK AO2 PK WND 25034/2319 SLP954 P0077 60315 T02500250 10256 20239
57016





000
SAGM31 PGUM 042354
MTRGUM
METAR PGUM 042354Z 25021G31KT 3/4SM +RA BR SCT005 OVC012 25/25 A2942
RMK AO2 PK WND 25034/2319 SLP954 P0077 60315 T02500250 10256 20239
57016




000
SAGM31 PGUM 042354
MTRGUM
METAR PGUM 042354Z 25021G31KT 3/4SM +RA BR SCT005 OVC012 25/25 A2942
RMK AO2 PK WND 25034/2319 SLP954 P0077 60315 T02500250 10256 20239
57016




000
SAGM31 PGUM 042354
MTRGUM
METAR PGUM 042354Z 25021G31KT 3/4SM +RA BR SCT005 OVC012 25/25 A2942
RMK AO2 PK WND 25034/2319 SLP954 P0077 60315 T02500250 10256 20239
57016





000
SAGM31 PGUM 042349
MTRGUM
SPECI PGUM 042348Z 25021G24KT 1SM +RA BR SCT005 OVC012 24/24 A2942
RMK AO2 PK WND 25034/2319 P0076




000
SAGM31 PGUM 042349
MTRGUM
SPECI PGUM 042348Z 25021G24KT 1SM +RA BR SCT005 OVC012 24/24 A2942
RMK AO2 PK WND 25034/2319 P0076





000
SAGM31 PGUM 042344
MTRGUM
SPECI PGUM 042344Z 26020G27KT 3SM RA BR FEW005 OVC022 24/24 A2942
RMK AO2 PK WND 25034/2319 P0074




000
SAGM31 PGUM 042344
MTRGUM
SPECI PGUM 042344Z 26020G27KT 3SM RA BR FEW005 OVC022 24/24 A2942
RMK AO2 PK WND 25034/2319 P0074





000
SAGM31 PGUM 042335
MTRGUM
SPECI PGUM 042335Z 26022G30KT 2SM RA BR BKN005 OVC012 25/25 A2942
RMK AO2 PK WND 25034/2319 P0072




000
SAGM31 PGUM 042335
MTRGUM
SPECI PGUM 042335Z 26022G30KT 2SM RA BR BKN005 OVC012 25/25 A2942
RMK AO2 PK WND 25034/2319 P0072





000
SAGM31 PGUM 042335
MTRGUM
SPECI PGUM 042335Z 26022G30KT 2SM RA BR BKN005 OVC012 25/25 A2942
RMK AO2 PK WND 25034/2319 P0072




000
SAGM31 PGUM 042335
MTRGUM
SPECI PGUM 042335Z 26022G30KT 2SM RA BR BKN005 OVC012 25/25 A2942
RMK AO2 PK WND 25034/2319 P0072





000
SAGM31 PGUM 042326
MTRGUM
SPECI PGUM 042326Z 27024G34KT 1 1/2SM RA BR OVC005 25/25 A2943 RMK
AO2 PK WND 25034/2319 P0069





000
SAGM31 PGUM 042326
MTRGUM
SPECI PGUM 042326Z 27024G34KT 1 1/2SM RA BR OVC005 25/25 A2943 RMK
AO2 PK WND 25034/2319 P0069





000
SAGM31 PGUM 042326
MTRGUM
SPECI PGUM 042326Z 27024G34KT 1 1/2SM RA BR OVC005 25/25 A2943 RMK
AO2 PK WND 25034/2319 P0069




000
SAGM31 PGUM 042314
MTRGUM
SPECI PGUM 042314Z 27024G34KT 3/4SM +RA BR VV005 25/25 A2943 RMK AO2
PK WND 27034/2314 P0055 $





000
SAGM31 PGUM 042314
MTRGUM
SPECI PGUM 042314Z 27024G34KT 3/4SM +RA BR VV005 25/25 A2943 RMK AO2
PK WND 27034/2314 P0055 $




000
SAGM31 PGUM 042314
MTRGUM
SPECI PGUM 042314Z 27024G34KT 3/4SM +RA BR VV005 25/25 A2943 RMK AO2
PK WND 27034/2314 P0055 $





000
SAGM31 PGUM 042314
MTRGUM
SPECI PGUM 042314Z 27024G34KT 3/4SM +RA BR VV005 25/25 A2943 RMK AO2
PK WND 27034/2314 P0055 $




000
SAGM31 PGUM 042301
MTRGUM
SPECI PGUM 042301Z 30019G28KT 1SM +RA BR VV007 25/25 A2944 RMK AO2
PK WND 28028/2257 P0015 $




000
SAGM31 PGUM 042254
MTRGUM
METAR PGUM 042254Z 27017G28KT 3/4SM +RA BR VV009 25/25 A2943 RMK AO2
PK WND 27032/2156 SLP957 P0074 T02500250 $




000
SAGM31 PGUM 042254
MTRGUM
METAR PGUM 042254Z 27017G28KT 3/4SM +RA BR VV009 25/25 A2943 RMK AO2
PK WND 27032/2156 SLP957 P0074 T02500250 $





000
SAGM31 PGUM 042254
MTRGUM
METAR PGUM 042254Z 27017G28KT 3/4SM +RA BR VV009 25/25 A2943 RMK AO2
PK WND 27032/2156 SLP957 P0074 T02500250 $




000
SAGM31 PGUM 042245
MTRGUM
SPECI PGUM 042245Z 26019G29KT 1SM +RA BR VV010 24/24 A2943 RMK AO2
PK WND 27032/2156 P0051 $




000
SAGM31 PGUM 042245
MTRGUM
SPECI PGUM 042245Z 26019G29KT 1SM +RA BR VV010 24/24 A2943 RMK AO2
PK WND 27032/2156 P0051 $





000
SAGM31 PGUM 042245
MTRGUM
SPECI PGUM 042245Z 26019G29KT 1SM +RA BR VV010 24/24 A2943 RMK AO2
PK WND 27032/2156 P0051 $




000
SAGM31 PGUM 042245
MTRGUM
SPECI PGUM 042245Z 26019G29KT 1SM +RA BR VV010 24/24 A2943 RMK AO2
PK WND 27032/2156 P0051 $





000
SAGM31 PGUM 042240
MTRGUM
SPECI PGUM 042240Z 28020G29KT 3/4SM +RA BR FEW006 OVC009 24/24 A2944
RMK AO2 PK WND 27032/2156 P0036 $




000
SAGM31 PGUM 042240
MTRGUM
SPECI PGUM 042240Z 28020G29KT 3/4SM +RA BR FEW006 OVC009 24/24 A2944
RMK AO2 PK WND 27032/2156 P0036 $




000
SAGM31 PGUM 042240
MTRGUM
SPECI PGUM 042240Z 28020G29KT 3/4SM +RA BR FEW006 OVC009 24/24 A2944
RMK AO2 PK WND 27032/2156 P0036 $





000
SAGM31 PGUM 042240
MTRGUM
SPECI PGUM 042240Z 28020G29KT 3/4SM +RA BR FEW006 OVC009 24/24 A2944
RMK AO2 PK WND 27032/2156 P0036 $





000
SAGM31 PGUM 042233
MTRGUM
SPECI PGUM 042233Z 29021G28KT 1 1/2SM +RA BR FEW004 OVC013 25/25
A2944 RMK AO2 PK WND 27032/2156 P0020 $




000
SAGM31 PGUM 042233
MTRGUM
SPECI PGUM 042233Z 29021G28KT 1 1/2SM +RA BR FEW004 OVC013 25/25
A2944 RMK AO2 PK WND 27032/2156 P0020 $





000
SAGM31 PGUM 042225
MTRGUM
SPECI PGUM 042224Z 26021G31KT 2 1/2SM +RA BR SCT004 OVC010 25/25
A2944 RMK AO2 PK WND 27032/2156 P0007 $




000
SAGM31 PGUM 042225
MTRGUM
SPECI PGUM 042224Z 26021G31KT 2 1/2SM +RA BR SCT004 OVC010 25/25
A2944 RMK AO2 PK WND 27032/2156 P0007 $





000
SAGM31 PGUM 042222
MTRGUM
SPECI PGUM 042221Z 27022G31KT 4SM RA BR BKN004 OVC010 25/25 A2944
RMK AO2 PK WND 27032/2156 P0004 $





000
SAGM31 PGUM 042222
MTRGUM
SPECI PGUM 042221Z 27022G31KT 4SM RA BR BKN004 OVC010 25/25 A2944
RMK AO2 PK WND 27032/2156 P0004 $




000
SAGM31 PGUM 042222
MTRGUM
SPECI PGUM 042221Z 27022G31KT 4SM RA BR BKN004 OVC010 25/25 A2944
RMK AO2 PK WND 27032/2156 P0004 $




000
SAGM31 PGUM 042222
MTRGUM
SPECI PGUM 042221Z 27022G31KT 4SM RA BR BKN004 OVC010 25/25 A2944
RMK AO2 PK WND 27032/2156 P0004 $





000
SAGM31 PGUM 042210
MTRGUM
SPECI PGUM 042210Z 27021G31KT 4SM -RA BR SCT003 OVC008 25/25 A2945
RMK AO2 PK WND 27032/2156 P0002 $




000
SAGM31 PGUM 042210
MTRGUM
SPECI PGUM 042210Z 27021G31KT 4SM -RA BR SCT003 OVC008 25/25 A2945
RMK AO2 PK WND 27032/2156 P0002 $





000
SAGM31 PGUM 042201
MTRGUM
SPECI PGUM 042201Z 27022G32KT 2SM RA BR OVC008 25/25 A2945 RMK AO2
PK WND 27032/2156 P0001 $





000
SAGM31 PGUM 042201
MTRGUM
SPECI PGUM 042201Z 27022G32KT 2SM RA BR OVC008 25/25 A2945 RMK AO2
PK WND 27032/2156 P0001 $




000
SAGM31 PGUM 042201
MTRGUM
SPECI PGUM 042201Z 27022G32KT 2SM RA BR OVC008 25/25 A2945 RMK AO2
PK WND 27032/2156 P0001 $





000
SAGM31 PGUM 042201
MTRGUM
SPECI PGUM 042201Z 27022G32KT 2SM RA BR OVC008 25/25 A2945 RMK AO2
PK WND 27032/2156 P0001 $




000
SAGM31 PGUM 042154
MTRGUM
METAR PGUM 042154Z 27024G30KT 1SM RA BR VV008 25/25 A2945 RMK AO2 PK
WND 26030/2150 SLP966 P0069 T02500250 $




000
SAGM31 PGUM 042154
MTRGUM
METAR PGUM 042154Z 27024G30KT 1SM RA BR VV008 25/25 A2945 RMK AO2 PK
WND 26030/2150 SLP966 P0069 T02500250 $





000
SAGM31 PGUM 042154
MTRGUM
METAR PGUM 042154Z 27024G30KT 1SM RA BR VV008 25/25 A2945 RMK AO2 PK
WND 26030/2150 SLP966 P0069 T02500250 $




000
SAGM31 PGUM 042132
MTRGUM
SPECI PGUM 042132Z 29017G23KT 1SM +RA BR SCT003 OVC014 25/25 A2946
RMK AO2 PK WND 30028/2115 P0036 $





000
SAGM31 PGUM 042132
MTRGUM
SPECI PGUM 042132Z 29017G23KT 1SM +RA BR SCT003 OVC014 25/25 A2946
RMK AO2 PK WND 30028/2115 P0036 $




000
SAGM31 PGUM 042132
MTRGUM
SPECI PGUM 042132Z 29017G23KT 1SM +RA BR SCT003 OVC014 25/25 A2946
RMK AO2 PK WND 30028/2115 P0036 $




000
SAGM31 PGUM 042132
MTRGUM
SPECI PGUM 042132Z 29017G23KT 1SM +RA BR SCT003 OVC014 25/25 A2946
RMK AO2 PK WND 30028/2115 P0036 $





000
SAGM31 PGUM 042110
MTRGUM
SPECI PGUM 042109Z 29018G25KT 2 1/2SM +RA BR SCT005 OVC015 25/25
A2945 RMK AO2 P0019 $




000
SAGM31 PGUM 042110
MTRGUM
SPECI PGUM 042109Z 29018G25KT 2 1/2SM +RA BR SCT005 OVC015 25/25
A2945 RMK AO2 P0019 $





000
SAGM31 PGUM 042110
MTRGUM
SPECI PGUM 042109Z 29018G25KT 2 1/2SM +RA BR SCT005 OVC015 25/25
A2945 RMK AO2 P0019 $





000
SAGM31 PGUM 042103
MTRGUM
SPECI PGUM 042102Z 30016G26KT 1 1/2SM +RA BR SCT005 OVC011 25/25
A2946 RMK AO2 P0013 $





000
SAGM31 PGUM 042103
MTRGUM
SPECI PGUM 042102Z 30016G26KT 1 1/2SM +RA BR SCT005 OVC011 25/25
A2946 RMK AO2 P0013 $




000
SAGM31 PGUM 042055
MTRGUM
METAR PGUM 042054Z 31018G26KT 2SM +RA BR BKN005 OVC023 25/25 A2946
RMK AO2 PK WND 30029/2027 SLP970 P0029 60076 T02500250 55005 $




000
SAGM31 PGUM 042055
MTRGUM
METAR PGUM 042054Z 31018G26KT 2SM +RA BR BKN005 OVC023 25/25 A2946
RMK AO2 PK WND 30029/2027 SLP970 P0029 60076 T02500250 55005 $





000
SAGM31 PGUM 042055
MTRGUM
METAR PGUM 042054Z 31018G26KT 2SM +RA BR BKN005 OVC023 25/25 A2946
RMK AO2 PK WND 30029/2027 SLP970 P0029 60076 T02500250 55005 $




000
SAGM31 PGUM 042055
MTRGUM
METAR PGUM 042054Z 31018G26KT 2SM +RA BR BKN005 OVC023 25/25 A2946
RMK AO2 PK WND 30029/2027 SLP970 P0029 60076 T02500250 55005 $





000
SAGM31 PGUM 042046
MTRGUM
SPECI PGUM 042045Z 31018G23KT 2SM +RA BR BKN005 OVC024 25/25 A2947
RMK AO2 PK WND 30029/2027 P0022 $





000
SAGM31 PGUM 042046
MTRGUM
SPECI PGUM 042045Z 31018G23KT 2SM +RA BR BKN005 OVC024 25/25 A2947
RMK AO2 PK WND 30029/2027 P0022 $




000
SAGM31 PGUM 042031
MTRGUM
SPECI PGUM 042030Z 30018G29KT 2SM +RA BR SCT007 BKN039 OVC090 25/25
A2945 RMK AO2 PK WND 30029/2027 P0010 $




000
SAGM31 PGUM 042031
MTRGUM
SPECI PGUM 042030Z 30018G29KT 2SM +RA BR SCT007 BKN039 OVC090 25/25
A2945 RMK AO2 PK WND 30029/2027 P0010 $





000
SAGM31 PGUM 042013
MTRGUM
SPECI PGUM 042012Z 30018G27KT 2SM RA BR BKN007 BKN019 OVC110 25/25
A2944 RMK AO2 PK WND 31027/2004 P0002 $




000
SAGM31 PGUM 042013
MTRGUM
SPECI PGUM 042012Z 30018G27KT 2SM RA BR BKN007 BKN019 OVC110 25/25
A2944 RMK AO2 PK WND 31027/2004 P0002 $





000
SAGM31 PGUM 042013
MTRGUM
SPECI PGUM 042012Z 30018G27KT 2SM RA BR BKN007 BKN019 OVC110 25/25
A2944 RMK AO2 PK WND 31027/2004 P0002 $





000
SAGM31 PGUM 042013
MTRGUM
SPECI PGUM 042012Z 30018G27KT 2SM RA BR BKN007 BKN019 OVC110 25/25
A2944 RMK AO2 PK WND 31027/2004 P0002 $




000
SAGM31 PGUM 041955
MTRGUM
METAR PGUM 041954Z 30019G23KT 9SM -RA BKN007 BKN023 OVC120 26/26
A2944 RMK AO2 SLP961 P0003 T02560256 $




000
SAGM31 PGUM 041955
MTRGUM
METAR PGUM 041954Z 30019G23KT 9SM -RA BKN007 BKN023 OVC120 26/26
A2944 RMK AO2 SLP961 P0003 T02560256 $





000
SAGM31 PGUM 041902
MTRGUM
SPECI PGUM 041901Z 31013G19KT 8SM -RA SCT009 BKN049 OVC095 26/25
A2946 RMK AO2 P0001 $




000
SAGM31 PGUM 041902
MTRGUM
SPECI PGUM 041901Z 31013G19KT 8SM -RA SCT009 BKN049 OVC095 26/25
A2946 RMK AO2 P0001 $





000
SAGM31 PGUM 041855
MTRGUM
METAR PGUM 041854Z 31010KT 9SM -RA SCT006 BKN013 OVC090 25/25 A2947
RMK AO2 SLP971 P0044 T02500250 $




000
SAGM31 PGUM 041855
MTRGUM
METAR PGUM 041854Z 31010KT 9SM -RA SCT006 BKN013 OVC090 25/25 A2947
RMK AO2 SLP971 P0044 T02500250 $





000
SAGM31 PGUM 041855
MTRGUM
METAR PGUM 041854Z 31010KT 9SM -RA SCT006 BKN013 OVC090 25/25 A2947
RMK AO2 SLP971 P0044 T02500250 $





000
SAGM31 PGUM 041855
MTRGUM
METAR PGUM 041854Z 31010KT 9SM -RA SCT006 BKN013 OVC090 25/25 A2947
RMK AO2 SLP971 P0044 T02500250 $




000
SAGM31 PGUM 041817
MTRGUM
SPECI PGUM 041817Z 29013G18KT 3SM RA BR FEW004 OVC009 25/25 A2947
RMK AO2 P0039 $




000
SAGM31 PGUM 041817
MTRGUM
SPECI PGUM 041817Z 29013G18KT 3SM RA BR FEW004 OVC009 25/25 A2947
RMK AO2 P0039 $





000
SAGM31 PGUM 041805
MTRGUM
SPECI PGUM 041805Z 30013KT 1 1/4SM +RA BR OVC009 25/25 A2947 RMK AO2
P0025 $




000
SAGM31 PGUM 041805
MTRGUM
SPECI PGUM 041805Z 30013KT 1 1/4SM +RA BR OVC009 25/25 A2947 RMK AO2
P0025 $





000
SAGM31 PGUM 041805
MTRGUM
SPECI PGUM 041805Z 30013KT 1 1/4SM +RA BR OVC009 25/25 A2947 RMK AO2
P0025 $




000
SAGM31 PGUM 041805
MTRGUM
SPECI PGUM 041805Z 30013KT 1 1/4SM +RA BR OVC009 25/25 A2947 RMK AO2
P0025 $





000
SAGM31 PGUM 041754
MTRGUM
METAR PGUM 041754Z 30014G25KT 3/4SM +RA BR VV009 25/25 A2948 RMK AO2
WSHFT 1735 SLP974 P0197 60482 T02500250 10267 20239 55017 $





000
SAGM31 PGUM 041754
MTRGUM
METAR PGUM 041754Z 30014G25KT 3/4SM +RA BR VV009 25/25 A2948 RMK AO2
WSHFT 1735 SLP974 P0197 60482 T02500250 10267 20239 55017 $




000
SAGM31 PGUM 041754
MTRGUM
METAR PGUM 041754Z 30014G25KT 3/4SM +RA BR VV009 25/25 A2948 RMK AO2
WSHFT 1735 SLP974 P0197 60482 T02500250 10267 20239 55017 $




000
SAGM31 PGUM 041754
MTRGUM
METAR PGUM 041754Z 30014G25KT 3/4SM +RA BR VV009 25/25 A2948 RMK AO2
WSHFT 1735 SLP974 P0197 60482 T02500250 10267 20239 55017 $





000
SAGM31 PGUM 041741
MTRGUM
SPECI PGUM 041741Z 30012G23KT 3/4SM +RA BR VV009 25/25 A2949 RMK AO2
P0138 $




000
SAGM31 PGUM 041741
MTRGUM
SPECI PGUM 041741Z 30012G23KT 3/4SM +RA BR VV009 25/25 A2949 RMK AO2
P0138 $





000
SAGM31 PGUM 041741
MTRGUM
SPECI PGUM 041741Z 30012G23KT 3/4SM +RA BR VV009 25/25 A2949 RMK AO2
P0138 $




000
SAGM31 PGUM 041741
MTRGUM
SPECI PGUM 041741Z 30012G23KT 3/4SM +RA BR VV009 25/25 A2949 RMK AO2
P0138 $





000
SAGM31 PGUM 041719
MTRGUM
SPECI PGUM 041719Z 30011KT 1SM +RA BR VV009 25/25 A2949 RMK AO2
P0079 $




000
SAGM31 PGUM 041719
MTRGUM
SPECI PGUM 041719Z 30011KT 1SM +RA BR VV009 25/25 A2949 RMK AO2
P0079 $





000
SAGM31 PGUM 041654
MTRGUM
METAR PGUM 041654Z 31009KT 1 1/4SM +RA BR OVC010 25/25 A2947 RMK AO2
SLP973 P0097 T02500250 $




000
SAGM31 PGUM 041654
MTRGUM
METAR PGUM 041654Z 31009KT 1 1/4SM +RA BR OVC010 25/25 A2947 RMK AO2
SLP973 P0097 T02500250 $





000
SAGM31 PGUM 041646
MTRGUM
SPECI PGUM 041645Z 31009KT 1SM +RA BR VV010 24/24 A2947 RMK AO2
P0076 $





000
SAGM31 PGUM 041646
MTRGUM
SPECI PGUM 041645Z 31009KT 1SM +RA BR VV010 24/24 A2947 RMK AO2
P0076 $




000
SAGM31 PGUM 041631
MTRGUM
SPECI PGUM 041631Z 31012KT 1SM +RA BR VV008 25/25 A2949 RMK AO2
P0035 $




000
SAGM31 PGUM 041631
MTRGUM
SPECI PGUM 041631Z 31012KT 1SM +RA BR VV008 25/25 A2949 RMK AO2
P0035 $





000
SAGM31 PGUM 041601
MTRGUM
SPECI PGUM 041601Z 30009KT 2SM RA BR SCT004 BKN009 OVC014 25/25
A2949 RMK AO2 P0005 $





000
SAGM31 PGUM 041601
MTRGUM
SPECI PGUM 041601Z 30009KT 2SM RA BR SCT004 BKN009 OVC014 25/25
A2949 RMK AO2 P0005 $




000
SAGM31 PGUM 041601
MTRGUM
SPECI PGUM 041601Z 30009KT 2SM RA BR SCT004 BKN009 OVC014 25/25
A2949 RMK AO2 P0005 $




000
SAGM31 PGUM 041601
MTRGUM
SPECI PGUM 041601Z 30009KT 2SM RA BR SCT004 BKN009 OVC014 25/25
A2949 RMK AO2 P0005 $





000
SAGM31 PGUM 041555
MTRGUM
METAR PGUM 041554Z 31008KT 2SM RA BR SCT004 BKN010 OVC041 25/25
A2950 RMK AO2 SLP980 P0033 T02500250 $




000
SAGM31 PGUM 041555
MTRGUM
METAR PGUM 041554Z 31008KT 2SM RA BR SCT004 BKN010 OVC041 25/25
A2950 RMK AO2 SLP980 P0033 T02500250 $





000
SAGM31 PGUM 041555
MTRGUM
METAR PGUM 041554Z 31008KT 2SM RA BR SCT004 BKN010 OVC041 25/25
A2950 RMK AO2 SLP980 P0033 T02500250 $




000
SAGM31 PGUM 041512
MTRGUM
SPECI PGUM 041511Z 32010KT 2SM +RA BR FEW006 BKN012 OVC022 24/24
A2952 RMK AO2 P0016 $




000
SAGM31 PGUM 041512
MTRGUM
SPECI PGUM 041511Z 32010KT 2SM +RA BR FEW006 BKN012 OVC022 24/24
A2952 RMK AO2 P0016 $





000
SAGM31 PGUM 041505
MTRGUM
SPECI PGUM 041504Z 32009KT 3SM RA BR SCT006 BKN014 OVC075 24/24
A2952 RMK AO2 P0003 $




000
SAGM31 PGUM 041505
MTRGUM
SPECI PGUM 041504Z 32009KT 3SM RA BR SCT006 BKN014 OVC075 24/24
A2952 RMK AO2 P0003 $





000
SAGM31 PGUM 041455
MTRGUM
METAR PGUM 041454Z 32010KT 6SM RA BR SCT012 BKN048 BKN075 24/24
A2953 RMK AO2 WSHFT 1338 SLP991 OCNL LTGICCC DSNT NE P0122 60155
T02390239 58011 $




000
SAGM31 PGUM 041455
MTRGUM
METAR PGUM 041454Z 32010KT 6SM RA BR SCT012 BKN048 BKN075 24/24
A2953 RMK AO2 WSHFT 1338 SLP991 OCNL LTGICCC DSNT NE P0122 60155
T02390239 58011 $





000
SAGM31 PGUM 041455
MTRGUM
METAR PGUM 041454Z 32010KT 6SM RA BR SCT012 BKN048 BKN075 24/24
A2953 RMK AO2 WSHFT 1338 SLP991 OCNL LTGICCC DSNT NE P0122 60155
T02390239 58011 $





000
SAGM31 PGUM 041431
MTRGUM
SPECI PGUM 041430Z 34005KT 7SM -RA SCT020 BKN075 BKN100 23/23 A2953
RMK AO2 WSHFT 1338 P0120 $





000
SAGM31 PGUM 041431
MTRGUM
SPECI PGUM 041430Z 34005KT 7SM -RA SCT020 BKN075 BKN100 23/23 A2953
RMK AO2 WSHFT 1338 P0120 $




000
SAGM31 PGUM 041423
MTRGUM
SPECI PGUM 041422Z 33005G17KT 2SM RA BR BKN020 OVC070 23/23 A2953
RMK AO2 WSHFT 1338 PRESFR P0119 $




000
SAGM31 PGUM 041423
MTRGUM
SPECI PGUM 041422Z 33005G17KT 2SM RA BR BKN020 OVC070 23/23 A2953
RMK AO2 WSHFT 1338 PRESFR P0119 $





000
SAGM31 PGUM 041423
MTRGUM
SPECI PGUM 041422Z 33005G17KT 2SM RA BR BKN020 OVC070 23/23 A2953
RMK AO2 WSHFT 1338 PRESFR P0119 $





000
SAGM31 PGUM 041423
MTRGUM
SPECI PGUM 041422Z 33005G17KT 2SM RA BR BKN020 OVC070 23/23 A2953
RMK AO2 WSHFT 1338 PRESFR P0119 $




000
SAGM31 PGUM 041411
MTRGUM
SPECI PGUM 041410Z 36013KT 1SM +RA BR VV011 24/24 A2955 RMK AO2
WSHFT 1338 P0095 $




000
SAGM31 PGUM 041411
MTRGUM
SPECI PGUM 041410Z 36013KT 1SM +RA BR VV011 24/24 A2955 RMK AO2
WSHFT 1338 P0095 $





000
SAGM31 PGUM 041357
MTRGUM
SPECI PGUM 041356Z 03010KT 3/4SM +RA BR BKN008 OVC013 24/24 A2955
RMK AO2 WSHFT 1338 P0021 $





000
SAGM31 PGUM 041352
MTRGUM
METAR PGUM 041351Z 04015G28KT 3/4SM +RA BR BKN011 OVC018 24/23 A2955
RMK AO2 PK WND 05028/1344 WSHFT 1331 RAB01E13B42 SLP000 P0033
T02390233 403170239 $




000
SAGM31 PGUM 041352
MTRGUM
METAR PGUM 041351Z 04015G28KT 3/4SM +RA BR BKN011 OVC018 24/23 A2955
RMK AO2 PK WND 05028/1344 WSHFT 1331 RAB01E13B42 SLP000 P0033
T02390233 403170239 $




000
SAGM31 PGUM 041352
MTRGUM
METAR PGUM 041351Z 04015G28KT 3/4SM +RA BR BKN011 OVC018 24/23 A2955
RMK AO2 PK WND 05028/1344 WSHFT 1331 RAB01E13B42 SLP000 P0033
T02390233 403170239 $





000
SAGM31 PGUM 041351
MTRGUM
SPECI PGUM 041350Z 05016G28KT 3/4SM +RA BR BKN011 OVC018 24/23 A2955
RMK AO2 PK WND 05028/1344 WSHFT 1331 RAB01E13B42 P0027 403170239 $




000
SAGM31 PGUM 041351
MTRGUM
SPECI PGUM 041350Z 05016G28KT 3/4SM +RA BR BKN011 OVC018 24/23 A2955
RMK AO2 PK WND 05028/1344 WSHFT 1331 RAB01E13B42 P0027 403170239 $




000
SAGM31 PGUM 041351
MTRGUM
SPECI PGUM 041350Z 05016G28KT 3/4SM +RA BR BKN011 OVC018 24/23 A2955
RMK AO2 PK WND 05028/1344 WSHFT 1331 RAB01E13B42 P0027 403170239 $





000
SAGM31 PGUM 041351
MTRGUM
SPECI PGUM 041350Z 05016G28KT 3/4SM +RA BR BKN011 OVC018 24/23 A2955
RMK AO2 PK WND 05028/1344 WSHFT 1331 RAB01E13B42 P0027 403170239 $





000
SAGM31 PGUM 041345
MTRGUM
SPECI PGUM 041344Z 05023G28KT 1 3/4SM +RA BR SCT013 BKN022 25/24
A2955 RMK AO2 PK WND 05028/1344 RAB01E13B42 P0005 $





000
SAGM31 PGUM 041345
MTRGUM
SPECI PGUM 041344Z 05023G28KT 1 3/4SM +RA BR SCT013 BKN022 25/24
A2955 RMK AO2 PK WND 05028/1344 RAB01E13B42 P0005 $




000
SAGM31 PGUM 041345
MTRGUM
SPECI PGUM 041344Z 05023G28KT 1 3/4SM +RA BR SCT013 BKN022 25/24
A2955 RMK AO2 PK WND 05028/1344 RAB01E13B42 P0005 $





000
SAGM31 PGUM 041254
MTRGUM
METAR PGUM 041254Z 33011G21KT 10SM SCT013 BKN022 27/26 A2954 RMK AO2
SLP996 T02670256 $




000
SAGM31 PGUM 041254
MTRGUM
METAR PGUM 041254Z 33011G21KT 10SM SCT013 BKN022 27/26 A2954 RMK AO2
SLP996 T02670256 $





000
SAGM31 PGUM 041254
MTRGUM
METAR PGUM 041254Z 33011G21KT 10SM SCT013 BKN022 27/26 A2954 RMK AO2
SLP996 T02670256 $




000
SAGM31 PGUM 041254
MTRGUM
METAR PGUM 041254Z 33011G21KT 10SM SCT013 BKN022 27/26 A2954 RMK AO2
SLP996 T02670256 $





000
SAGM31 PGUM 041203
MTRGUM
SPECI PGUM 041203Z 34015G20KT 10SM BKN015 BKN027 OVC036 27/25 A2956
RMK AO2 $





000
SAGM31 PGUM 041203
MTRGUM
SPECI PGUM 041203Z 34015G20KT 10SM BKN015 BKN027 OVC036 27/25 A2956
RMK AO2 $




000
SAGM31 PGUM 041203
MTRGUM
SPECI PGUM 041203Z 34015G20KT 10SM BKN015 BKN027 OVC036 27/25 A2956
RMK AO2 $




000
SAGM31 PGUM 041203
MTRGUM
SPECI PGUM 041203Z 34015G20KT 10SM BKN015 BKN027 OVC036 27/25 A2956
RMK AO2 $





000
SAGM31 PGUM 041154
MTRGUM
METAR PGUM 041154Z 34014G20KT 10SM BKN013 BKN025 OVC033 27/25 A2956
RMK AO2 SLP002 60003 70017 T02670250 10306 20261 55002 $




000
SAGM31 PGUM 041154
MTRGUM
METAR PGUM 041154Z 34014G20KT 10SM BKN013 BKN025 OVC033 27/25 A2956
RMK AO2 SLP002 60003 70017 T02670250 10306 20261 55002 $





000
SAGM31 PGUM 041055
MTRGUM
METAR PGUM 041054Z 35015G20KT 10SM BKN015 BKN024 BKN036 27/25 A2956
RMK AO2 RAB03E14 SLP001 P0003 T02670250 $





000
SAGM31 PGUM 041055
MTRGUM
METAR PGUM 041054Z 35015G20KT 10SM BKN015 BKN024 BKN036 27/25 A2956
RMK AO2 RAB03E14 SLP001 P0003 T02670250 $




000
SAGM31 PGUM 041047
MTRGUM
SPECI PGUM 041047Z 35012KT 10SM BKN015 BKN024 BKN090 27/25 A2956 RMK
AO2 RAB03E14 P0003 $





000
SAGM31 PGUM 041047
MTRGUM
SPECI PGUM 041047Z 35012KT 10SM BKN015 BKN024 BKN090 27/25 A2956 RMK
AO2 RAB03E14 P0003 $




000
SAGM31 PGUM 041047
MTRGUM
SPECI PGUM 041047Z 35012KT 10SM BKN015 BKN024 BKN090 27/25 A2956 RMK
AO2 RAB03E14 P0003 $





000
SAGM31 PGUM 041047
MTRGUM
SPECI PGUM 041047Z 35012KT 10SM BKN015 BKN024 BKN090 27/25 A2956 RMK
AO2 RAB03E14 P0003 $




000
SAGM31 PGUM 041011
MTRGUM
SPECI PGUM 041010Z 36009KT 4SM -RA BR BKN012 BKN031 OVC075 27/25
A2957 RMK AO2 RAB03 P0003 $




000
SAGM31 PGUM 040955
MTRGUM
METAR PGUM 040954Z 36009KT 10SM FEW016 BKN065 OVC080 27/25 A2957 RMK
AO2 SLP003 T02720250 $




000
SAGM31 PGUM 040933
MTRGUM
SPECI PGUM 040932Z 01010KT 10SM SCT014 BKN026 OVC070 27/25 A2956 RMK
AO2 $





000
SAGM31 PGUM 040933
MTRGUM
SPECI PGUM 040932Z 01010KT 10SM SCT014 BKN026 OVC070 27/25 A2956 RMK
AO2 $




000
SAGM31 PGUM 040933
MTRGUM
SPECI PGUM 040932Z 01010KT 10SM SCT014 BKN026 OVC070 27/25 A2956 RMK
AO2 $




000
SAGM31 PGUM 040933
MTRGUM
SPECI PGUM 040932Z 01010KT 10SM SCT014 BKN026 OVC070 27/25 A2956 RMK
AO2 $





000
SAGM31 PGUM 040920
MTRGUM
SPECI PGUM 040919Z 36011G16KT 10SM BKN014 BKN022 BKN070 27/25 A2956
RMK AO2 $





000
SAGM31 PGUM 040920
MTRGUM
SPECI PGUM 040919Z 36011G16KT 10SM BKN014 BKN022 BKN070 27/25 A2956
RMK AO2 $




000
SAGM31 PGUM 040855
MTRGUM
METAR PGUM 040854Z 35012KT 10SM SCT012 BKN022 BKN032 27/25 A2955 RMK
AO2 SLP999 60000 T02670250 53008 $




000
SAGM31 PGUM 040855
MTRGUM
METAR PGUM 040854Z 35012KT 10SM SCT012 BKN022 BKN032 27/25 A2955 RMK
AO2 SLP999 60000 T02670250 53008 $





000
SAGM31 PGUM 040855
MTRGUM
METAR PGUM 040854Z 35012KT 10SM SCT012 BKN022 BKN032 27/25 A2955 RMK
AO2 SLP999 60000 T02670250 53008 $




000
SAGM31 PGUM 040855
MTRGUM
METAR PGUM 040854Z 35012KT 10SM SCT012 BKN022 BKN032 27/25 A2955 RMK
AO2 SLP999 60000 T02670250 53008 $





000
SAGM31 PGUM 040755
MTRGUM
METAR PGUM 040754Z 01012KT 10SM FEW013 BKN100 BKN120 27/24 A2954 RMK
AO2 SLP994 T02670244 $




000
SAGM31 PGUM 040755
MTRGUM
METAR PGUM 040754Z 01012KT 10SM FEW013 BKN100 BKN120 27/24 A2954 RMK
AO2 SLP994 T02670244 $





000
SAGM31 PGUM 040755
MTRGUM
METAR PGUM 040754Z 01012KT 10SM FEW013 BKN100 BKN120 27/24 A2954 RMK
AO2 SLP994 T02670244 $




000
SAGM31 PGUM 040755
MTRGUM
METAR PGUM 040754Z 01012KT 10SM FEW013 BKN100 BKN120 27/24 A2954 RMK
AO2 SLP994 T02670244 $





000
SAGM31 PGUM 040729
MTRGUM
SPECI PGUM 040728Z 36009KT 10SM FEW016 BKN030 OVC100 27/25 A2954 RMK
AO2 $





000
SAGM31 PGUM 040729
MTRGUM
SPECI PGUM 040728Z 36009KT 10SM FEW016 BKN030 OVC100 27/25 A2954 RMK
AO2 $




000
SAGM31 PGUM 040654
MTRGUM
METAR PGUM 040654Z 36008KT 10SM BKN018 BKN027 OVC070 27/24 A2953 RMK
AO2 PK WND 03028/0636 RAB37E53 SLP992 P0000 T02670244 $





000
SAGM31 PGUM 040654
MTRGUM
METAR PGUM 040654Z 36008KT 10SM BKN018 BKN027 OVC070 27/24 A2953 RMK
AO2 PK WND 03028/0636 RAB37E53 SLP992 P0000 T02670244 $




000
SAGM31 PGUM 040639
MTRGUM
SPECI PGUM 040639Z 02019G28KT 8SM -RA FEW017 BKN022 BKN028 28/24
A2953 RMK AO2 PK WND 03028/0636 RAB37 P0000 $




000
SAGM31 PGUM 040639
MTRGUM
SPECI PGUM 040639Z 02019G28KT 8SM -RA FEW017 BKN022 BKN028 28/24
A2953 RMK AO2 PK WND 03028/0636 RAB37 P0000 $





000
SAGM31 PGUM 040554
MTRGUM
METAR PGUM 040554Z 01014KT 10SM SCT024 31/25 A2953 RMK AO2 PK WND
02031/0459 RAB01E11 SLP991 60014 P0000 T03060250 10317 20272 56010 $





000
SAGM31 PGUM 040554
MTRGUM
METAR PGUM 040554Z 01014KT 10SM SCT024 31/25 A2953 RMK AO2 PK WND
02031/0459 RAB01E11 SLP991 60014 P0000 T03060250 10317 20272 56010 $




000
SAGM31 PGUM 040454
MTRGUM
METAR PGUM 040454Z 02014KT 10SM SCT025 SCT034 31/24 A2953 RMK AO2
SLP992 T03060244 $





000
SAGM31 PGUM 040454
MTRGUM
METAR PGUM 040454Z 02014KT 10SM SCT025 SCT034 31/24 A2953 RMK AO2
SLP992 T03060244 $




000
SAGM31 PGUM 040355
MTRGUM
METAR PGUM 040354Z 04017G21KT 10SM SCT023 BKN032 BKN043 31/25 A2955
RMK AO2 PK WND 02026/0319 SLP999 T03060250 $




000
SAGM31 PGUM 040355
MTRGUM
METAR PGUM 040354Z 04017G21KT 10SM SCT023 BKN032 BKN043 31/25 A2955
RMK AO2 PK WND 02026/0319 SLP999 T03060250 $




000
SAGM31 PGUM 040355
MTRGUM
METAR PGUM 040354Z 04017G21KT 10SM SCT023 BKN032 BKN043 31/25 A2955
RMK AO2 PK WND 02026/0319 SLP999 T03060250 $





000
SAGM31 PGUM 040333
MTRGUM
SPECI PGUM 040332Z 01018G23KT 10SM SCT025 BKN029 BKN035 31/25 A2955
RMK AO2 PK WND 02026/0319 $




000
SAGM31 PGUM 040255
MTRGUM
METAR PGUM 040254Z 04019G28KT 10SM SCT024 SCT030 SCT037 31/26 A2956
RMK AO2 PK WND 03028/0246 RAE0155 SLP001 60007 T03060256 58010 $





000
SAGM31 PGUM 040255
MTRGUM
METAR PGUM 040254Z 04019G28KT 10SM SCT024 SCT030 SCT037 31/26 A2956
RMK AO2 PK WND 03028/0246 RAE0155 SLP001 60007 T03060256 58010 $




000
SAGM31 PGUM 040246
MTRGUM
SPECI PGUM 040245Z 04022G28KT 10SM SCT024 BKN032 BKN080 30/26 A2956
RMK AO2 PK WND 03028/0244 RAE0155 $




000
SAGM31 PGUM 040246
MTRGUM
SPECI PGUM 040245Z 04022G28KT 10SM SCT024 BKN032 BKN080 30/26 A2956
RMK AO2 PK WND 03028/0244 RAE0155 $





000
SAGM31 PGUM 040155
MTRGUM
METAR PGUM 040154Z 02016G20KT 7SM -RA SCT013 SCT019 BKN026 29/27
A2957 RMK AO2 PK WND 04027/0140 SLP006 P0007 T02890267 $





000
SAGM31 PGUM 040155
MTRGUM
METAR PGUM 040154Z 02016G20KT 7SM -RA SCT013 SCT019 BKN026 29/27
A2957 RMK AO2 PK WND 04027/0140 SLP006 P0007 T02890267 $




000
SAGM31 PGUM 040152
MTRGUM
SPECI PGUM 040152Z 02014G20KT 7SM -RA SCT013 BKN026 BKN036 28/27
A2957 RMK AO2 PK WND 04027/0140 P0007 $





000
SAGM31 PGUM 040152
MTRGUM
SPECI PGUM 040152Z 02014G20KT 7SM -RA SCT013 BKN026 BKN036 28/27
A2957 RMK AO2 PK WND 04027/0140 P0007 $




000
SAGM31 PGUM 040145
MTRGUM
SPECI PGUM 040144Z COR 02016G27KT 2SM +RA BKN019 BKN028 OVC035 28/26
A2958 RMK AO2 PK WND 04027/0140 P0006 $





000
SAGM31 PGUM 040145
MTRGUM
SPECI PGUM 040144Z COR 02016G27KT 2SM +RA BKN019 BKN028 OVC035 28/26
A2958 RMK AO2 PK WND 04027/0140 P0006 $




000
SAGM31 PGUM 040145
MTRGUM
SPECI PGUM 040144Z COR 02016G27KT 2SM +RA BKN019 BKN028 OVC035 28/26
A2958 RMK AO2 PK WND 04027/0140 P0006 $




000
SAGM31 PGUM 040145
MTRGUM
SPECI PGUM 040144Z COR 02016G27KT 2SM +RA BKN019 BKN028 OVC035 28/26
A2958 RMK AO2 PK WND 04027/0140 P0006 $





000
SAGM31 PGUM 040144
MTRGUM
SPECI PGUM 040144Z 02016G27KT 1 1/2SM +RA BR BKN019 BKN028 OVC035
28/26 A2958 RMK AO2 PK WND 04027/0140 P0006 $





000
SAGM31 PGUM 040144
MTRGUM
SPECI PGUM 040144Z 02016G27KT 1 1/2SM +RA BR BKN019 BKN028 OVC035
28/26 A2958 RMK AO2 PK WND 04027/0140 P0006 $




000
SAGM31 PGUM 040144
MTRGUM
SPECI PGUM 040144Z 02016G27KT 1 1/2SM +RA BR BKN019 BKN028 OVC035
28/26 A2958 RMK AO2 PK WND 04027/0140 P0006 $




000
SAGM31 PGUM 040144
MTRGUM
SPECI PGUM 040144Z 02016G27KT 1 1/2SM +RA BR BKN019 BKN028 OVC035
28/26 A2958 RMK AO2 PK WND 04027/0140 P0006 $





000
SAGM31 PGUM 040054
MTRGUM
METAR PGUM 040054Z 03013G21KT 7SM -RA SCT021 BKN028 BKN040 29/27
A2959 RMK AO2 PK WND 03028/0041 RAB41 SLP010 P0000 T02890267 $





000
SAGM31 PGUM 040054
MTRGUM
METAR PGUM 040054Z 03013G21KT 7SM -RA SCT021 BKN028 BKN040 29/27
A2959 RMK AO2 PK WND 03028/0041 RAB41 SLP010 P0000 T02890267 $




000
SAGM31 PGUM 040054
MTRGUM
METAR PGUM 040054Z 03013G21KT 7SM -RA SCT021 BKN028 BKN040 29/27
A2959 RMK AO2 PK WND 03028/0041 RAB41 SLP010 P0000 T02890267 $




000
SAGM31 PGUM 040054
MTRGUM
METAR PGUM 040054Z 03013G21KT 7SM -RA SCT021 BKN028 BKN040 29/27
A2959 RMK AO2 PK WND 03028/0041 RAB41 SLP010 P0000 T02890267 $





000
SAGM31 PGUM 040046
MTRGUM
SPECI PGUM 040046Z 04013G28KT 6SM RA BR SCT020 BKN027 BKN035 28/26
A2959 RMK AO2 PK WND 03028/0041 RAB41 P0000 $




000
SAGM31 PGUM 040046
MTRGUM
SPECI PGUM 040046Z 04013G28KT 6SM RA BR SCT020 BKN027 BKN035 28/26
A2959 RMK AO2 PK WND 03028/0041 RAB41 P0000 $





000
SAGM31 PGUM 040009
MTRGUM
SPECI PGUM 040009Z 03015G26KT 10SM FEW023 SCT030 BKN037 30/25 A2959
RMK AO2 PK WND 03026/0005 $





000
SAGM31 PGUM 040009
MTRGUM
SPECI PGUM 040009Z 03015G26KT 10SM FEW023 SCT030 BKN037 30/25 A2959
RMK AO2 PK WND 03026/0005 $




000
SAGM31 PGUM 032355
MTRGUM
METAR PGUM 032354Z COR 03019G27KT 10SM SCT021 SCT026 BKN031 30/25
A2958 RMK AO2 PK WND 03027/2348 SLP009 60007 T03000250 10300 20261
58001 $




000
SAGM31 PGUM 032355
MTRGUM
METAR PGUM 032354Z COR 03019G27KT 10SM SCT021 SCT026 BKN031 30/25
A2958 RMK AO2 PK WND 03027/2348 SLP009 60007 T03000250 10300 20261
58001 $





000
SAGM31 PGUM 032354
MTRGUM
METAR PGUM 032354Z 03019G27KT 10SM SCT021 SCT026 BKN031 30/25 A2958
RMK AO2 PK WND 03027/2348 SLP009 60005 T03000250 10300 20261 58001 $





000
SAGM31 PGUM 032354
MTRGUM
METAR PGUM 032354Z 03019G27KT 10SM SCT021 SCT026 BKN031 30/25 A2958
RMK AO2 PK WND 03027/2348 SLP009 60005 T03000250 10300 20261 58001 $




000
SAGM31 PGUM 032340
MTRGUM
SPECI PGUM 032340Z 03016KT 10SM SCT021 BKN029 29/26 A2958 RMK AO2 $




000
SAGM31 PGUM 032340
MTRGUM
SPECI PGUM 032340Z 03016KT 10SM SCT021 BKN029 29/26 A2958 RMK AO2 $





000
SAGM31 PGUM 032254
MTRGUM
METAR PGUM 032254Z 03016G21KT 10SM FEW019 SCT026 SCT033 29/26 A2959
RMK AO2 RAB08E18 SLP011 P0001 T02940261 $




000
SAGM31 PGUM 032224
MTRGUM
SPECI PGUM 032224Z 03015G22KT 10SM FEW015 SCT022 BKN036 28/26 A2960
RMK AO2 RAB08E18 P0001 $




000
SAGM31 PGUM 032224
MTRGUM
SPECI PGUM 032224Z 03015G22KT 10SM FEW015 SCT022 BKN036 28/26 A2960
RMK AO2 RAB08E18 P0001 $





000
SAGM31 PGUM 032212
MTRGUM
SPECI PGUM 032212Z 04013KT 5SM -RA BR FEW013 SCT019 BKN028 28/26
A2960 RMK AO2 RAB08 P0001 $




000
SAGM31 PGUM 032212
MTRGUM
SPECI PGUM 032212Z 04013KT 5SM -RA BR FEW013 SCT019 BKN028 28/26
A2960 RMK AO2 RAB08 P0001 $




000
SAGM31 PGUM 032212
MTRGUM
SPECI PGUM 032212Z 04013KT 5SM -RA BR FEW013 SCT019 BKN028 28/26
A2960 RMK AO2 RAB08 P0001 $





000
SAGM31 PGUM 032212
MTRGUM
SPECI PGUM 032212Z 04013KT 5SM -RA BR FEW013 SCT019 BKN028 28/26
A2960 RMK AO2 RAB08 P0001 $





000
SAGM31 PGUM 032155
MTRGUM
METAR PGUM 032154Z 04014KT 10SM FEW025 SCT032 28/26 A2959 RMK AO2
RAE00 SLP013 P0000 T02780256 $





000
SAGM31 PGUM 032155
MTRGUM
METAR PGUM 032154Z 04014KT 10SM FEW025 SCT032 28/26 A2959 RMK AO2
RAE00 SLP013 P0000 T02780256 $




000
SAGM31 PGUM 032126
MTRGUM
SPECI PGUM 032126Z 04013G20KT 10SM FEW020 28/26 A2959 RMK AO2 RAE00
P0000 $





000
SAGM31 PGUM 032126
MTRGUM
SPECI PGUM 032126Z 04013G20KT 10SM FEW020 28/26 A2959 RMK AO2 RAE00
P0000 $




000
SAGM31 PGUM 032055
MTRGUM
METAR PGUM 032054Z 04015G20KT 3SM -RA BR SCT015 BKN020 OVC028 26/26
A2959 RMK AO2 RAB36 SLP011 P0002 60004 T02610256 53009 $





000
SAGM31 PGUM 032055
MTRGUM
METAR PGUM 032054Z 04015G20KT 3SM -RA BR SCT015 BKN020 OVC028 26/26
A2959 RMK AO2 RAB36 SLP011 P0002 60004 T02610256 53009 $




000
SAGM31 PGUM 032055
MTRGUM
METAR PGUM 032054Z 04015G20KT 3SM -RA BR SCT015 BKN020 OVC028 26/26
A2959 RMK AO2 RAB36 SLP011 P0002 60004 T02610256 53009 $




000
SAGM31 PGUM 032055
MTRGUM
METAR PGUM 032054Z 04015G20KT 3SM -RA BR SCT015 BKN020 OVC028 26/26
A2959 RMK AO2 RAB36 SLP011 P0002 60004 T02610256 53009 $





000
SAGM31 PGUM 032043
MTRGUM
SPECI PGUM 032042Z 05012G20KT 6SM -RA BR SCT015 SCT020 BKN028 27/25
A2958 RMK AO2 RAB36 P0000 $





000
SAGM31 PGUM 032043
MTRGUM
SPECI PGUM 032042Z 05012G20KT 6SM -RA BR SCT015 SCT020 BKN028 27/25
A2958 RMK AO2 RAB36 P0000 $




000
SAGM31 PGUM 032012
MTRGUM
SPECI PGUM 032011Z 04016G21KT 10SM FEW014 SCT043 27/25 A2958 RMK AO2
$





000
SAGM31 PGUM 032012
MTRGUM
SPECI PGUM 032011Z 04016G21KT 10SM FEW014 SCT043 27/25 A2958 RMK AO2
$




000
SAGM31 PGUM 031955
MTRGUM
METAR PGUM 031954Z 04011KT 10SM SCT014 BKN024 BKN029 27/26 A2957 RMK
AO2 RAB41E51 SLP006 P0001 T02670256 $





000
SAGM31 PGUM 031955
MTRGUM
METAR PGUM 031954Z 04011KT 10SM SCT014 BKN024 BKN029 27/26 A2957 RMK
AO2 RAB41E51 SLP006 P0001 T02670256 $




000
SAGM31 PGUM 031955
MTRGUM
METAR PGUM 031954Z 04011KT 10SM SCT014 BKN024 BKN029 27/26 A2957 RMK
AO2 RAB41E51 SLP006 P0001 T02670256 $




000
SAGM31 PGUM 031955
MTRGUM
METAR PGUM 031954Z 04011KT 10SM SCT014 BKN024 BKN029 27/26 A2957 RMK
AO2 RAB41E51 SLP006 P0001 T02670256 $





000
SAGM31 PGUM 031941
MTRGUM
SPECI PGUM 031940Z 03010KT 8SM FEW013 SCT020 BKN026 27/26 A2957 RMK
AO2 $





000
SAGM31 PGUM 031941
MTRGUM
SPECI PGUM 031940Z 03010KT 8SM FEW013 SCT020 BKN026 27/26 A2957 RMK
AO2 $




000
SAGM31 PGUM 031855
MTRGUM
METAR PGUM 031854Z 02011KT 10SM FEW014 SCT026 BKN080 27/26 A2956 RMK
AO2 RAE1757B22E43 SLP003 P0001 T02670256 $





000
SAGM31 PGUM 031855
MTRGUM
METAR PGUM 031854Z 02011KT 10SM FEW014 SCT026 BKN080 27/26 A2956 RMK
AO2 RAE1757B22E43 SLP003 P0001 T02670256 $




000
SAGM31 PGUM 031848
MTRGUM
SPECI PGUM 031847Z 03012KT 10SM FEW016 SCT023 BKN080 27/26 A2956 RMK
AO2 RAE1757B22E43 P0001 $





000
SAGM31 PGUM 031848
MTRGUM
SPECI PGUM 031847Z 03012KT 10SM FEW016 SCT023 BKN080 27/26 A2956 RMK
AO2 RAE1757B22E43 P0001 $




000
SAGM31 PGUM 031848
MTRGUM
SPECI PGUM 031847Z 03012KT 10SM FEW016 SCT023 BKN080 27/26 A2956 RMK
AO2 RAE1757B22E43 P0001 $




000
SAGM31 PGUM 031848
MTRGUM
SPECI PGUM 031847Z 03012KT 10SM FEW016 SCT023 BKN080 27/26 A2956 RMK
AO2 RAE1757B22E43 P0001 $





000
SAGM31 PGUM 031755
MTRGUM
METAR PGUM 031754Z 03017KT 5SM -RA BR SCT013 BKN019 OVC024 27/26
A2956 RMK AO2 RAB11 SLP002 P0002 60002 T02670256 10272 20256 56017 $




000
SAGM31 PGUM 031755
MTRGUM
METAR PGUM 031754Z 03017KT 5SM -RA BR SCT013 BKN019 OVC024 27/26
A2956 RMK AO2 RAB11 SLP002 P0002 60002 T02670256 10272 20256 56017 $





000
SAGM31 PGUM 031733
MTRGUM
SPECI PGUM 031733Z 02014KT 5SM -RA BR SCT014 BKN023 OVC046 27/26
A2956 RMK AO2 RAB11 P0000 $




000
SAGM31 PGUM 031733
MTRGUM
SPECI PGUM 031733Z 02014KT 5SM -RA BR SCT014 BKN023 OVC046 27/26
A2956 RMK AO2 RAB11 P0000 $




000
SAGM31 PGUM 031733
MTRGUM
SPECI PGUM 031733Z 02014KT 5SM -RA BR SCT014 BKN023 OVC046 27/26
A2956 RMK AO2 RAB11 P0000 $





000
SAGM31 PGUM 031654
MTRGUM
METAR PGUM 031654Z 01011KT 10SM CLR 27/25 A2957 RMK AO2 RAB01E07
SLP004 P0000 T02670250 $




000
SAGM31 PGUM 031654
MTRGUM
METAR PGUM 031654Z 01011KT 10SM CLR 27/25 A2957 RMK AO2 RAB01E07
SLP004 P0000 T02670250 $





000
SAGM31 PGUM 031639
MTRGUM
SPECI PGUM 031639Z 01012KT 10SM SCT019 SCT024 27/26 A2958 RMK AO2
RAB01E07 P0000 $




000
SAGM31 PGUM 031639
MTRGUM
SPECI PGUM 031639Z 01012KT 10SM SCT019 SCT024 27/26 A2958 RMK AO2
RAB01E07 P0000 $





000
SAGM31 PGUM 031615
MTRGUM
SPECI PGUM 031614Z 36011KT 10SM SCT019 BKN025 OVC033 27/25 A2959 RMK
AO2 RAB01E07 P0000 $




000
SAGM31 PGUM 031615
MTRGUM
SPECI PGUM 031614Z 36011KT 10SM SCT019 BKN025 OVC033 27/25 A2959 RMK
AO2 RAB01E07 P0000 $




000
SAGM31 PGUM 031615
MTRGUM
SPECI PGUM 031614Z 36011KT 10SM SCT019 BKN025 OVC033 27/25 A2959 RMK
AO2 RAB01E07 P0000 $





000
SAGM31 PGUM 031615
MTRGUM
SPECI PGUM 031614Z 36011KT 10SM SCT019 BKN025 OVC033 27/25 A2959 RMK
AO2 RAB01E07 P0000 $





000
SAGM31 PGUM 031554
MTRGUM
METAR PGUM 031554Z 01011G20KT 10SM SCT023 BKN034 BKN041 27/26 A2959
RMK AO2 TSB39E44RAB1456E19B39E44 SLP013 FRQ LTGICCC DSNT W P0000
T02670256 $





000
SAGM31 PGUM 031544
MTRGUM
SPECI PGUM 031544Z 01010KT 10SM FEW028 SCT060 BKN100 26/26 A2959 RMK
AO2 TSB39E44RAB1456E19B39E44 OCNL LTGICCC DSNT W P0000 $




000
SAGM31 PGUM 031544
MTRGUM
SPECI PGUM 031544Z 01010KT 10SM FEW028 SCT060 BKN100 26/26 A2959 RMK
AO2 TSB39E44RAB1456E19B39E44 OCNL LTGICCC DSNT W P0000 $





000
SAGM31 PGUM 031455
MTRGUM
METAR PGUM 031454Z 03014G22KT 10SM FEW017 SCT030 BKN055 26/24 A2961
RMK AO2 RAB36E51 SLP019 P0000 60000 T02610244 58010 $




000
SAGM31 PGUM 031455
MTRGUM
METAR PGUM 031454Z 03014G22KT 10SM FEW017 SCT030 BKN055 26/24 A2961
RMK AO2 RAB36E51 SLP019 P0000 60000 T02610244 58010 $





000
SAGM31 PGUM 031455
MTRGUM
METAR PGUM 031454Z 03014G22KT 10SM FEW017 SCT030 BKN055 26/24 A2961
RMK AO2 RAB36E51 SLP019 P0000 60000 T02610244 58010 $





000
SAGM31 PGUM 031455
MTRGUM
METAR PGUM 031454Z 03014G22KT 10SM FEW017 SCT030 BKN055 26/24 A2961
RMK AO2 RAB36E51 SLP019 P0000 60000 T02610244 58010 $




000
SAGM31 PGUM 031355
MTRGUM
METAR PGUM 031354Z 02008KT 10SM SCT023 27/26 A2963 RMK AO2 RAE1258
SLP024 P0000 T02720256 403000256





000
SAGM31 PGUM 031355
MTRGUM
METAR PGUM 031354Z 02008KT 10SM SCT023 27/26 A2963 RMK AO2 RAE1258
SLP024 P0000 T02720256 403000256




000
SAGM31 PGUM 031254
MTRGUM
METAR PGUM 031254Z 04014KT 10SM -RA FEW020 SCT027 27/25 A2963 RMK
AO2 RAE00B52 SLP026 P0000 T02720250





000
SAGM31 PGUM 031254
MTRGUM
METAR PGUM 031254Z 04014KT 10SM -RA FEW020 SCT027 27/25 A2963 RMK
AO2 RAE00B52 SLP026 P0000 T02720250




000
SAGM31 PGUM 031208
MTRGUM
SPECI PGUM 031207Z 03018G23KT 10SM FEW021 SCT032 BKN070 27/26 A2964
RMK AO2 RAE00 P0000





000
SAGM31 PGUM 031208
MTRGUM
SPECI PGUM 031207Z 03018G23KT 10SM FEW021 SCT032 BKN070 27/26 A2964
RMK AO2 RAE00 P0000




000
SAGM31 PGUM 031156
MTRGUM
METAR PGUM 031154Z COR 03012G19KT 6SM -RA BR FEW015 BKN033 OVC065
27/26 A2964 RMK AO2 RAB15 SLP029 P0001 60031 70075 T02670256 10278
20256 53009




000
SAGM31 PGUM 031156
MTRGUM
METAR PGUM 031154Z COR 03012G19KT 6SM -RA BR FEW015 BKN033 OVC065
27/26 A2964 RMK AO2 RAB15 SLP029 P0001 60031 70075 T02670256 10278
20256 53009





000
SAGM31 PGUM 031154
MTRGUM
METAR PGUM 031154Z 03012G19KT 6SM -RA BR FEW015 BKN033 OVC065 27/26
A2964 RMK AO2 RAB15 SLP029 P0001 60022 70053 T02670256 10278 20256
53009





000
SAGM31 PGUM 031154
MTRGUM
METAR PGUM 031154Z 03012G19KT 6SM -RA BR FEW015 BKN033 OVC065 27/26
A2964 RMK AO2 RAB15 SLP029 P0001 60022 70053 T02670256 10278 20256
53009




000
SAGM31 PGUM 031055
MTRGUM
METAR PGUM 031054Z 04015KT 10SM FEW017 SCT036 SCT120 27/25 A2962 RMK
AO2 RAE14 SLP023 LTG DSNT SW P0007 T02720250




000
SAGM31 PGUM 031055
MTRGUM
METAR PGUM 031054Z 04015KT 10SM FEW017 SCT036 SCT120 27/25 A2962 RMK
AO2 RAE14 SLP023 LTG DSNT SW P0007 T02720250




000
SAGM31 PGUM 031055
MTRGUM
METAR PGUM 031054Z 04015KT 10SM FEW017 SCT036 SCT120 27/25 A2962 RMK
AO2 RAE14 SLP023 LTG DSNT SW P0007 T02720250





000
SAGM31 PGUM 031055
MTRGUM
METAR PGUM 031054Z 04015KT 10SM FEW017 SCT036 SCT120 27/25 A2962 RMK
AO2 RAE14 SLP023 LTG DSNT SW P0007 T02720250





000
SAGM31 PGUM 031040
MTRGUM
SPECI PGUM 031040Z 04016G24KT 10SM FEW015 SCT037 27/26 A2963 RMK AO2
RAE14 P0007





000
SAGM31 PGUM 031040
MTRGUM
SPECI PGUM 031040Z 04016G24KT 10SM FEW015 SCT037 27/26 A2963 RMK AO2
RAE14 P0007





000
SAGM31 PGUM 031040
MTRGUM
SPECI PGUM 031040Z 04016G24KT 10SM FEW015 SCT037 27/26 A2963 RMK AO2
RAE14 P0007




000
SAGM31 PGUM 031040
MTRGUM
SPECI PGUM 031040Z 04016G24KT 10SM FEW015 SCT037 27/26 A2963 RMK AO2
RAE14 P0007




000
SAGM31 PGUM 031010
MTRGUM
SPECI PGUM 031009Z 03013G18KT 5SM -RA BR SCT015 BKN021 OVC025 27/26
A2961 RMK AO2 P0007




000
SAGM31 PGUM 031010
MTRGUM
SPECI PGUM 031009Z 03013G18KT 5SM -RA BR SCT015 BKN021 OVC025 27/26
A2961 RMK AO2 P0007





000
SAGM31 PGUM 031010
MTRGUM
SPECI PGUM 031009Z 03013G18KT 5SM -RA BR SCT015 BKN021 OVC025 27/26
A2961 RMK AO2 P0007




000
SAGM31 PGUM 031010
MTRGUM
SPECI PGUM 031009Z 03013G18KT 5SM -RA BR SCT015 BKN021 OVC025 27/26
A2961 RMK AO2 P0007





000
SAGM31 PGUM 030955
MTRGUM
METAR PGUM 030954Z 04017G22KT 2 1/2SM +RA BR SCT016 BKN020 OVC070
27/25 A2961 RMK AO2 RAB0859E09B46 SLP019 P0005 T02670250




000
SAGM31 PGUM 030955
MTRGUM
METAR PGUM 030954Z 04017G22KT 2 1/2SM +RA BR SCT016 BKN020 OVC070
27/25 A2961 RMK AO2 RAB0859E09B46 SLP019 P0005 T02670250





000
SAGM31 PGUM 030955
MTRGUM
METAR PGUM 030954Z 04017G22KT 2 1/2SM +RA BR SCT016 BKN020 OVC070
27/25 A2961 RMK AO2 RAB0859E09B46 SLP019 P0005 T02670250





000
SAGM31 PGUM 030855
MTRGUM
METAR PGUM 030854Z 01008KT 7SM FEW015 SCT029 BKN039 27/26 A2961 RMK
AO2 RAB12E54 SLP020 P0006 60009 T02670261 53001





000
SAGM31 PGUM 030855
MTRGUM
METAR PGUM 030854Z 01008KT 7SM FEW015 SCT029 BKN039 27/26 A2961 RMK
AO2 RAB12E54 SLP020 P0006 60009 T02670261 53001




000
SAGM31 PGUM 030820
MTRGUM
SPECI PGUM 030819Z 04013G20KT 5SM -RA BR SCT016 BKN024 OVC034 27/26
A2961 RMK AO2 RAB12 P0000




000
SAGM31 PGUM 030820
MTRGUM
SPECI PGUM 030819Z 04013G20KT 5SM -RA BR SCT016 BKN024 OVC034 27/26
A2961 RMK AO2 RAB12 P0000





000
SAGM31 PGUM 030820
MTRGUM
SPECI PGUM 030819Z 04013G20KT 5SM -RA BR SCT016 BKN024 OVC034 27/26
A2961 RMK AO2 RAB12 P0000





000
SAGM31 PGUM 030820
MTRGUM
SPECI PGUM 030819Z 04013G20KT 5SM -RA BR SCT016 BKN024 OVC034 27/26
A2961 RMK AO2 RAB12 P0000




000
SAGM31 PGUM 030755
MTRGUM
METAR PGUM 030754Z 03012KT 10SM FEW016 BKN055 OVC075 27/26 A2960 RMK
AO2 PK WND 06030/0723 RAB22E36 SLP014 P0002 T02720256




000
SAGM31 PGUM 030755
MTRGUM
METAR PGUM 030754Z 03012KT 10SM FEW016 BKN055 OVC075 27/26 A2960 RMK
AO2 PK WND 06030/0723 RAB22E36 SLP014 P0002 T02720256




000
SAGM31 PGUM 030755
MTRGUM
METAR PGUM 030754Z 03012KT 10SM FEW016 BKN055 OVC075 27/26 A2960 RMK
AO2 PK WND 06030/0723 RAB22E36 SLP014 P0002 T02720256





000
SAGM31 PGUM 030755
MTRGUM
METAR PGUM 030754Z 03012KT 10SM FEW016 BKN055 OVC075 27/26 A2960 RMK
AO2 PK WND 06030/0723 RAB22E36 SLP014 P0002 T02720256





000
SAGM31 PGUM 030736
MTRGUM
SPECI PGUM 030735Z 04014KT 6SM -RA BR FEW017 SCT023 BKN050 27/26
A2959 RMK AO2 PK WND 06030/0723 RAB22 P0002 $




000
SAGM31 PGUM 030736
MTRGUM
SPECI PGUM 030735Z 04014KT 6SM -RA BR FEW017 SCT023 BKN050 27/26
A2959 RMK AO2 PK WND 06030/0723 RAB22 P0002 $





000
SAGM31 PGUM 030727
MTRGUM
SPECI PGUM 030726Z 06019G30KT 6SM -RA SCT019 BKN025 BKN039 27/24
A2960 RMK AO2 PK WND 06030/0723 RAB22 P0002 $





000
SAGM31 PGUM 030727
MTRGUM
SPECI PGUM 030726Z 06019G30KT 6SM -RA SCT019 BKN025 BKN039 27/24
A2960 RMK AO2 PK WND 06030/0723 RAB22 P0002 $




000
SAGM31 PGUM 030654
MTRGUM
METAR PGUM 030654Z 04013G19KT 10SM FEW018 SCT050 BKN110 27/26 A2959
RMK AO2 RAE18 SLP012 P0001 T02720256





000
SAGM31 PGUM 030654
MTRGUM
METAR PGUM 030654Z 04013G19KT 10SM FEW018 SCT050 BKN110 27/26 A2959
RMK AO2 RAE18 SLP012 P0001 T02720256




000
SAGM31 PGUM 030602
MTRGUM
SPECI PGUM 030602Z 05016KT 6SM -RA BR SCT012 BKN032 OVC070 26/25
A2961 RMK AO2 P0000




000
SAGM31 PGUM 030602
MTRGUM
SPECI PGUM 030602Z 05016KT 6SM -RA BR SCT012 BKN032 OVC070 26/25
A2961 RMK AO2 P0000





000
SAGM31 PGUM 030602
MTRGUM
SPECI PGUM 030602Z 05016KT 6SM -RA BR SCT012 BKN032 OVC070 26/25
A2961 RMK AO2 P0000





000
SAGM31 PGUM 030602
MTRGUM
SPECI PGUM 030602Z 05016KT 6SM -RA BR SCT012 BKN032 OVC070 26/25
A2961 RMK AO2 P0000




000
SAGM31 PGUM 030559
MTRGUM
SPECI PGUM 030558Z 05016G26KT 1/2SM -RA BR SCT009 BKN020 OVC070
26/25 A2961 RMK AO2 SFC VIS 3 P0000





000
SAGM31 PGUM 030559
MTRGUM
SPECI PGUM 030558Z 05016G26KT 1/2SM -RA BR SCT009 BKN020 OVC070
26/25 A2961 RMK AO2 SFC VIS 3 P0000





000
SAGM31 PGUM 030559
MTRGUM
SPECI PGUM 030558Z 05016G26KT 1/2SM -RA BR SCT009 BKN020 OVC070
26/25 A2961 RMK AO2 SFC VIS 3 P0000




000
SAGM31 PGUM 030559
MTRGUM
SPECI PGUM 030558Z 05016G26KT 1/2SM -RA BR SCT009 BKN020 OVC070
26/25 A2961 RMK AO2 SFC VIS 3 P0000




000
SAGM31 PGUM 030554
MTRGUM
METAR PGUM 030554Z 06017G28KT 1/2SM RA BR SCT010 OVC020 26/25 A2961
RMK AO2 PK WND 03036/0542 SFC VIS 1 3/4 VIS 1V5 RAB0456E09B42 SLP018
P0015 60031 T02610250 10300 20256 56014




000
SAGM31 PGUM 030554
MTRGUM
METAR PGUM 030554Z 06017G28KT 1/2SM RA BR SCT010 OVC020 26/25 A2961
RMK AO2 PK WND 03036/0542 SFC VIS 1 3/4 VIS 1V5 RAB0456E09B42 SLP018
P0015 60031 T02610250 10300 20256 56014




000
SAGM31 PGUM 030554
MTRGUM
METAR PGUM 030554Z 06017G28KT 1/2SM RA BR SCT010 OVC020 26/25 A2961
RMK AO2 PK WND 03036/0542 SFC VIS 1 3/4 VIS 1V5 RAB0456E09B42 SLP018
P0015 60031 T02610250 10300 20256 56014





000
SAGM31 PGUM 030554
MTRGUM
METAR PGUM 030554Z 06017G28KT 1/2SM RA BR SCT010 OVC020 26/25 A2961
RMK AO2 PK WND 03036/0542 SFC VIS 1 3/4 VIS 1V5 RAB0456E09B42 SLP018
P0015 60031 T02610250 10300 20256 56014





000
SAGM31 PGUM 030544
MTRGUM
SPECI PGUM 030544Z 04024G36KT 1/2SM RA BR FEW012 BKN019 BKN023 27/26
A2962 RMK AO2 PK WND 03036/0542 SFC VIS 1 RAB0456E09B42 P0004




000
SAGM31 PGUM 030544
MTRGUM
SPECI PGUM 030544Z 04024G36KT 1/2SM RA BR FEW012 BKN019 BKN023 27/26
A2962 RMK AO2 PK WND 03036/0542 SFC VIS 1 RAB0456E09B42 P0004





000
SAGM31 PGUM 030537
MTRGUM
SPECI PGUM 030537Z 02018G24KT 10SM BKN020 BKN026 28/26 A2961 RMK AO2
PK WND 03026/0455 RAB0456E09 P0003




000
SAGM31 PGUM 030537
MTRGUM
SPECI PGUM 030537Z 02018G24KT 10SM BKN020 BKN026 28/26 A2961 RMK AO2
PK WND 03026/0455 RAB0456E09 P0003




000
SAGM31 PGUM 030537
MTRGUM
SPECI PGUM 030537Z 02018G24KT 10SM BKN020 BKN026 28/26 A2961 RMK AO2
PK WND 03026/0455 RAB0456E09 P0003





000
SAGM31 PGUM 030537
MTRGUM
SPECI PGUM 030537Z 02018G24KT 10SM BKN020 BKN026 28/26 A2961 RMK AO2
PK WND 03026/0455 RAB0456E09 P0003





000
SAGM31 PGUM 030505
MTRGUM
SPECI PGUM 030505Z 05020G25KT 4SM -RA BR SCT017 BKN033 BKN050 27/26
A2961 RMK AO2 PK WND 03026/0455 RAB0456 P0003




000
SAGM31 PGUM 030505
MTRGUM
SPECI PGUM 030505Z 05020G25KT 4SM -RA BR SCT017 BKN033 BKN050 27/26
A2961 RMK AO2 PK WND 03026/0455 RAB0456 P0003




000
SAGM31 PGUM 030505
MTRGUM
SPECI PGUM 030505Z 05020G25KT 4SM -RA BR SCT017 BKN033 BKN050 27/26
A2961 RMK AO2 PK WND 03026/0455 RAB0456 P0003





000
SAGM31 PGUM 030505
MTRGUM
SPECI PGUM 030505Z 05020G25KT 4SM -RA BR SCT017 BKN033 BKN050 27/26
A2961 RMK AO2 PK WND 03026/0455 RAB0456 P0003





    US Dept of Commerce
    National Oceanic and Atmospheric Administration
    National Weather Service
    1325 East West Highway
    Silver Spring, MD 20910
    Page Author: NWS Internet Services Team
Disclaimer
Information Quality
Credits
Glossary
Privacy Policy
Freedom of Information Act (FOIA)
About Us
Career Opportunities